XML Sitemap

This is a XML Sitemap which is supposed to be processed by search engines which follow the XML Sitemap standard like Ask.com, Bing, Google and Yahoo.
It was generated using the WordPress content management system and the Google Sitemap Generator Plugin by Arne Brachhold.
You can find more information about XML sitemaps on sitemaps.org and Google's list of sitemap programs.

URLPriorityChange frequencyLast modified (GMT)
https://www.r1.lt/elastingumo-suteikianti-lakstine-kauke-su-ananasu-2-lakstai/80%Daily2018-08-31 23:42
https://www.r1.lt/tissot-t035-428-11-031-00/80%Daily2018-08-31 23:17
https://www.r1.lt/jordan-kerr-8106g-ips-grey/80%Daily2018-08-31 22:12
https://www.r1.lt/sulciaspaude-adler-ad-4113-p-tipas-slow-juicer-purple-150-w-greiciu-skaicius-1/80%Daily2018-08-31 22:11
https://www.r1.lt/projector-viewsonic-pa502xp-dlp-xga-3500-ansi-220001-hdmi-hdcp/80%Daily2018-08-31 22:09
https://www.r1.lt/steelseries-apex-750-klaviatura-us-black/80%Daily2018-08-31 20:58
https://www.r1.lt/sunne-av-stand-mobile-s21/80%Daily2018-08-31 20:46
https://www.r1.lt/lexmark-c950x76g-waste-toner-bottle-30000-pages/80%Daily2018-08-31 19:23
https://www.r1.lt/gembird-picture-mouse-pad-picture-mouse-pad-pvc-top-eva-bottom-230-x-180-x-3-mm/80%Daily2018-08-31 18:52
https://www.r1.lt/projector-optoma-dh330ust-1080p-3500-al-20-0001/80%Daily2018-08-31 18:04
https://www.r1.lt/citizen-jy8058-50l/80%Daily2018-08-31 17:53
https://www.r1.lt/qq-gs66j301y/80%Daily2018-08-31 17:47
https://www.r1.lt/adler-slow-juicer-ad-4119-type-electrical-black-yellowish-rose-200-w-extra-large-fruit-input-number-of-speeds-1/80%Daily2018-08-31 17:30
https://www.r1.lt/gastroback-ice-crusher-1-l/80%Daily2018-08-31 17:13
https://www.r1.lt/timberland-tbl-15512jsu-02/80%Daily2018-08-31 17:02
https://www.r1.lt/monitor-asus-pb247q-24inch-fullhd-hdmi-dp/80%Daily2018-08-31 16:34
https://www.r1.lt/gigabyte-optical-mouse-wired-black/80%Daily2018-08-31 16:26
https://www.r1.lt/external-hdd-transcend-storejet-200-portable-hard-drive-2-5-2tb-usb-c/80%Daily2018-08-31 16:25
https://www.r1.lt/casio-g-shock-gwf-d1000-1er/80%Daily2018-08-31 16:10
https://www.r1.lt/candy-washing-machine-css4-1372d3-front-loading-washing-capacity-7-kg-1300-rpm-a-depth-40-cm-width-60-cm-white-steam-function-led-display/80%Daily2018-08-31 15:42
https://www.r1.lt/inavi-lf9816b-zaislinis-kasos-aparatas-pirkiniu-vezimelis/80%Daily2018-08-31 15:41
https://www.r1.lt/iwalk-power-bank-sbs200q-secretary-plus-20000mah-li-ion/80%Daily2018-08-31 15:14
https://www.r1.lt/citizen-bi5000-01a/80%Daily2018-08-31 14:25
https://www.r1.lt/timberland-tbl-15516js-03/80%Daily2018-08-31 13:47
https://www.r1.lt/asus-fx-series-gaming-fx504ge-gun-metal-15-6-tn-fhd-1920-x-1080-pixels-matt-intel-core-i7-i7-8750h-16-gb-ddr4-5400-rpm-ssd-256-gb-hybrid-hdd-1000-gb-hybrid-hard-drive-h-hdd-cache/80%Daily2018-08-31 13:16
https://www.r1.lt/logilink-true-wireless-headset-bt0044-black-bluetooth/80%Daily2018-08-31 12:44
https://www.r1.lt/lexmark-c734x20g-photoconductor-unit-20000-pages/80%Daily2018-08-31 12:26
https://www.r1.lt/acer-aspire-5-a515-51g-black-15-6-ips-full-hd-1920-x-1080-pixels-matt-intel-core-i5-i5-8250u-6-gb-ddr4-hdd-1000-gb-5400-rpm-nvidia-geforce-mx130-gddr5-2-gb-no-optical-drive-window/80%Daily2018-08-31 12:25
https://www.r1.lt/airsoft-kjw-colt-1911-co2-sratasvydzio-pistoletas/80%Daily2018-08-31 12:06
https://www.r1.lt/casio-ltp-1283pd-4a2ef/80%Daily2018-08-31 11:37
https://www.r1.lt/steelseries-apex-m750-klaviatura-us-black/80%Daily2018-08-31 11:11
https://www.r1.lt/organic-duso-zele-250-ml/80%Daily2018-08-31 11:10
https://www.r1.lt/jacques-lemans-1-1844l/80%Daily2018-08-31 11:09
https://www.r1.lt/lg-rc90u2av2w-abwqkmr-dziovinimo-masina/80%Daily2018-08-31 11:06
https://www.r1.lt/telforceone-rc-200-monster-4x4-r-c-automobilis/80%Daily2018-08-31 11:01
https://www.r1.lt/art-sport-band-with-heart-and-blood-pressure-monitor/80%Daily2018-08-31 10:31
https://www.r1.lt/airsoft-m9-bereta-sratasvydzio-pistoletas-su-duslintuvo-imitacija/80%Daily2018-08-31 10:26
https://www.r1.lt/hood-cata-podium-500-xgwh-wall-mounted-width-50-cm-560-m%c2%b3-h-white-glass-energy-efficiency-class-e-63-db/80%Daily2018-08-31 09:35
https://www.r1.lt/25-hdd-protection-box-for-1-hdd-blue-logilink/80%Daily2018-08-31 08:52
https://www.r1.lt/tissot-t035-428-11-051-00/80%Daily2018-08-31 08:07
https://www.r1.lt/jordan-kerr-pw106w-iprg-white/80%Daily2018-08-31 08:00
https://www.r1.lt/port-designs-muskoka-tablet-case-360-black-7-8-port-designs/80%Daily2018-08-31 07:50
https://www.r1.lt/jordan-kerr-i104l-ips/80%Daily2018-08-31 07:35
https://www.r1.lt/avi-8-av-4050-04/80%Daily2018-08-31 06:51
https://www.r1.lt/airsoft-we-sw-mp9-sratasvydzio-pistoletas/80%Daily2018-08-31 06:15
https://www.r1.lt/romanson-rl4115q-lw-bk/80%Daily2018-08-31 06:08
https://www.r1.lt/inavi-80612-namas-lelems-su-priedais/80%Daily2018-08-31 05:28
https://www.r1.lt/self-tan-purity-bronzing-water-mousse-savaiminio-idegio-vanduo-putos-200-ml/80%Daily2018-08-31 05:21
https://www.r1.lt/airsoft-ak-47-sratasvydzio-automatas-medzio-imitacija/80%Daily2018-08-31 04:50
https://www.r1.lt/casio-ltp-1308pd-1bvef/80%Daily2018-08-31 04:26
https://www.r1.lt/citizen-jy8069-88e/80%Daily2018-08-31 04:20
https://www.r1.lt/jordan-kerr-w1136agx-ipg-black/80%Daily2018-08-31 02:53
https://www.r1.lt/ergonomic-sit-stand-workspace-riser-950x615x106-460mm-adjustable/80%Daily2018-08-31 02:39
https://www.r1.lt/perfect-b7249-g001/80%Daily2018-08-31 02:25
https://www.r1.lt/lenovo-thinkpad-x1-carbon-black-14-0-ips-touchscreen-full-hd-1920-x-1080-pixels-matt-intel-core-i5-i5-8350u-16-gb-ssd-512-gb-intel-uhd-no-optical-drive-windows-10-pro-8265-ac-bluet/80%Daily2018-08-31 01:46
https://www.r1.lt/bisset-noa-viii-bsbe93gisx03bx/80%Daily2018-08-31 00:24
https://www.r1.lt/hand-blender-scarlett-sc-hb42f44-1500w/80%Daily2018-08-30 23:54
https://www.r1.lt/timberland-tbl-15474jsbl-61/80%Daily2018-08-30 22:41
https://www.r1.lt/acer-aspire-3-a315-53g-black-15-6-hd-1366-x-768-pixels-matt-intel-core-i5-i5-7200u-6-gb-ddr4-hdd-500-gb-5400-rpm-ssd-128-gb-nvidia-geforce-mx130-gddr5-2-gb-windows-10-home-802-11/80%Daily2018-08-30 22:15
https://www.r1.lt/projector-optoma-dw330ust-wxga-3500-al-20-0001/80%Daily2018-08-30 22:02
https://www.r1.lt/tefal-pp1063v0-vonios-svarstykles-pink/80%Daily2018-08-30 21:42
https://www.r1.lt/timberland-tbl-13330xs-02/80%Daily2018-08-30 20:42
https://www.r1.lt/avi-8-av-4011-0e/80%Daily2018-08-30 20:31
https://www.r1.lt/dell-8-gb-ddr4-2666-mhz-pc-server-registered-yes-ecc-yes/80%Daily2018-08-30 20:17
https://www.r1.lt/lg-55uk6400plf-aeu-led-televizorius/80%Daily2018-08-30 19:10
https://www.r1.lt/timberland-tbl-15516jsu-02/80%Daily2018-08-30 18:53
https://www.r1.lt/epson-c13t03v14a-101-ecotank-bk-rasalas-black/80%Daily2018-08-30 18:47
https://www.r1.lt/airsoft-we-glock-23c-sratasvydzio-pistoletas/80%Daily2018-08-30 18:35
https://www.r1.lt/citizen-bj6501-10l/80%Daily2018-08-30 17:51
https://www.r1.lt/citizen-bi5000-52b/80%Daily2018-08-30 17:11
https://www.r1.lt/lg-49uk6200pla-aee-led-televizorius/80%Daily2018-08-30 17:10
https://www.r1.lt/inavi-6958a-zaislinis-rinkinys/80%Daily2018-08-30 16:20
https://www.r1.lt/citizen-bj6501-28a/80%Daily2018-08-30 16:02
https://www.r1.lt/jacques-lemans-1-1847c/80%Daily2018-08-30 15:39
https://www.r1.lt/polaroid-polaroid-zip-instant-photoprinter-blue/80%Daily2018-08-30 15:35
https://www.r1.lt/avi-8-av-4001-09/80%Daily2018-08-30 14:48
https://www.r1.lt/3mk-ferya-skincase-back-cover-apple-iphone-x-protective-foil-night-blue-matte/80%Daily2018-08-30 13:03
https://www.r1.lt/techly-mobilus-stovas-dideliems-tv-lcd-led-plazminiams-60-100-100kg-vesa/80%Daily2018-08-30 12:48
https://www.r1.lt/cata-campana-dio-600gwh-gartraukis/80%Daily2018-08-30 12:32
https://www.r1.lt/logilink-keyboard-bluetooth-mini-size-black-flat-mini-bluetooth-keyboard-standard-keys-80-bluetooth-v2-0-media-and-internet-hot-keys-4-range-10-m-supports-iphone-ipod-ipad/80%Daily2018-08-30 12:18
https://www.r1.lt/inavi-av502-lele/80%Daily2018-08-30 12:00
https://www.r1.lt/cata-hood-tf-5260-gwh-wall-mounted-width-60-cm-600-m%c2%b3-h-white-energy-efficiency-class-e-65-db/80%Daily2018-08-30 12:00
https://www.r1.lt/iwalk-power-bank-sbs100c-secretary-plus-10000mah-li-ion/80%Daily2018-08-30 11:54
https://www.r1.lt/dulkiu-siurblys-hoover-sl71_sl10011/80%Daily2018-08-30 11:26
https://www.r1.lt/tefal-blue-2400-w-w/80%Daily2018-08-30 09:59
https://www.r1.lt/nokia-8110-4g-ds-mobilus-telefonas-yellow/80%Daily2018-08-30 09:49
https://www.r1.lt/jordan-kerr-p111-iprg-blue/80%Daily2018-08-30 08:45
https://www.r1.lt/jordan-kerr-b2239g-iprg-brown/80%Daily2018-08-30 08:43
https://www.r1.lt/dozatorius-pompa-professionnelle-5000ml-talpoms/80%Daily2018-08-30 06:41
https://www.r1.lt/inavi-80311-namas-lelems-su-priedais/80%Daily2018-08-30 04:12
https://www.r1.lt/panasonic-shaver-es-rt87-s503-wet-use-rechargeable-charging-time-1-h-li-ion-battery-powered-number-of-shaver-heads-blades-3-silver-black/80%Daily2018-08-30 04:05
https://www.r1.lt/airsoft-g36kv-sratasvydzio-automatas/80%Daily2018-08-30 04:03
https://www.r1.lt/perfect-b7249-rg002/80%Daily2018-08-30 03:38
https://www.r1.lt/timberland-tbl-15513jsu-53/80%Daily2018-08-30 03:35
https://www.r1.lt/airsoft-bls-0-23g-sratukai-1kg/80%Daily2018-08-30 03:24
https://www.r1.lt/savaiminio-idegio-purskiamas-vanduo-bronzing-mist-125-ml/80%Daily2018-08-30 02:35
https://www.r1.lt/sandisk-cruzer-glide-128gb-usb-3-0-software-protects-128-bit-atmintine/80%Daily2018-08-30 02:12
https://www.r1.lt/casio-g-shock-awg-m100a-1aer/80%Daily2018-08-30 00:48
https://www.r1.lt/timberland-tbl-15475js-07/80%Daily2018-08-29 23:38
https://www.r1.lt/gastroback-milk-frother-stainless-steel-electrical/80%Daily2018-08-29 23:16
https://www.r1.lt/lenovo-thinkpad-x1-carbon-black-14-0-ips-full-hd-1920-x-1080-pixels-matt-intel-core-i7-i7-8550u-8-gb-ssd-512-gb-intel-uhd-no-optical-drive-windows-10-pro-8265-ac-bluetooth-version-4-2/80%Daily2018-08-29 22:52
https://www.r1.lt/casio-aeq-200w-9avef/80%Daily2018-08-29 22:36
https://www.r1.lt/timberland-tbl-15514js-03/80%Daily2018-08-29 22:00
https://www.r1.lt/iwalk-power-bank-uba8000-8000-mah-white/80%Daily2018-08-29 21:42
https://www.r1.lt/electrolux-oven-eea4545pox-71-l-black-stainless-steel-push-pull-height-59-4-cm-width-59-4-cm-built-in-oven/80%Daily2018-08-29 20:24
https://www.r1.lt/casio-mtp-1302pd-1a1ef/80%Daily2018-08-29 20:07
https://www.r1.lt/skystas-kempineliu-valiklis-liquid-blendercleanser-295ml/80%Daily2018-08-29 20:07
https://www.r1.lt/dozatorius-pompa-bonacure-750ml-talpoms/80%Daily2018-08-29 20:05
https://www.r1.lt/inavi-661-02-vaikiska-lovele-lelems/80%Daily2018-08-29 19:31
https://www.r1.lt/gradual-tan-pre-shower-tanning-mouse-laipsniskos-idegio-putos-pries-prausimasi-duse-120-ml/80%Daily2018-08-29 19:30
https://www.r1.lt/hp-external-ssd-p600-250gb-560-470-mb-s-usb-type-c/80%Daily2018-08-29 19:13
https://www.r1.lt/goobay-59819-quick-charge-powerbank-15-0-15-000-mah/80%Daily2018-08-29 18:13
https://www.r1.lt/goobay-59821-quick-charge-powerbank-10-0-10000-mah/80%Daily2018-08-29 16:35
https://www.r1.lt/timberland-tbl-14645jsb-02/80%Daily2018-08-29 15:30
https://www.r1.lt/sony-3/80%Daily2018-08-29 14:38
https://www.r1.lt/lenovo-330-15-5fhd-i3-7020u-4gb-128ssd-intelhd-dos-en-onyx-black-nesiojamas-kompiuteris/80%Daily2018-08-29 12:46
https://www.r1.lt/haier-a3fe742cgwj-saldytuvas/80%Daily2018-08-29 12:27
https://www.r1.lt/airsoft-core-carbine-replica-m4-m16-sratasvydzio-automatas/80%Daily2018-08-29 12:23
https://www.r1.lt/timberland-tbl-14645js-04a/80%Daily2018-08-29 12:16
https://www.r1.lt/perfect-b7326-rg001/80%Daily2018-08-29 12:08
https://www.r1.lt/airsoft-m4-m16-core-carbine-replica-sratasvydzio-automatas/80%Daily2018-08-29 11:54
https://www.r1.lt/airsoft-we-glock-17-gen4-sratasvydzio-pistoletas/80%Daily2018-08-29 11:33
https://www.r1.lt/sunne-av-stand-mobile-s22/80%Daily2018-08-29 11:20
https://www.r1.lt/goobay-50152-cat-5e-patchcable-f-utp-red-2m/80%Daily2018-08-29 09:17
https://www.r1.lt/timberland-tbl-15513js-02/80%Daily2018-08-29 09:03
https://www.r1.lt/inavi-3307b-lele-su-priedais/80%Daily2018-08-29 07:52
https://www.r1.lt/timberland-tbl-15026js-03/80%Daily2018-08-29 07:24
https://www.r1.lt/casio-mcw-110h-1avef/80%Daily2018-08-29 07:19
https://www.r1.lt/haier-hmf-406b-saldytuvas/80%Daily2018-08-29 07:06
https://www.r1.lt/drekinamoji-paakiu-kauke-princess-eye-patch-silver-1-pora/80%Daily2018-08-29 06:44
https://www.r1.lt/airsoft-kjw-colt-1911-greengas-sratasvydzio-pistoletas/80%Daily2018-08-29 05:31
https://www.r1.lt/jacques-lemans-york-1-1593-1g/80%Daily2018-08-29 05:16
https://www.r1.lt/jordan-kerr-i111l-ips-black/80%Daily2018-08-29 04:52
https://www.r1.lt/timberland-tbl-15488jsu-03/80%Daily2018-08-29 04:33
https://www.r1.lt/epson-c13t03v44a-ecotank-ye-rasalas-yellow/80%Daily2018-08-29 03:54
https://www.r1.lt/timberland-tbl-15512jsb-03/80%Daily2018-08-29 02:54
https://www.r1.lt/gembird-double-usb-dual-vibration-gamepad/80%Daily2018-08-29 00:58
https://www.r1.lt/timberland-tbl-15516jsb-02/80%Daily2018-08-29 00:53
https://www.r1.lt/inavi-661-302-konstruktoriaus-rinkinys/80%Daily2018-08-29 00:38
https://www.r1.lt/timberland-tbl-15473jlu-02/80%Daily2018-08-29 00:33
https://www.r1.lt/inavi-6390in-r-b-valdomas-kranas/80%Daily2018-08-28 22:55
https://www.r1.lt/tissot-t099-407-16-447-00/80%Daily2018-08-28 21:57
https://www.r1.lt/jordan-kerr-p111-iprg-brown/80%Daily2018-08-28 21:37
https://www.r1.lt/organic-arganu-aliejus-30-ml/80%Daily2018-08-28 20:11
https://www.r1.lt/airsoft-cyma-ak-74-sratasvydzio-automatas-medis/80%Daily2018-08-28 19:40
https://www.r1.lt/venus-breeze-skustuvo-galvutes-4-vnt/80%Daily2018-08-28 19:39
https://www.r1.lt/citizen-bi5000-52l/80%Daily2018-08-28 19:26
https://www.r1.lt/jordan-kerr-l115-iprg-black/80%Daily2018-08-28 19:23
https://www.r1.lt/timberland-tbl-15014js-20a/80%Daily2018-08-28 18:23
https://www.r1.lt/3doodler-create-plus-3d-pen-manual-3d-printer-marine-blue/80%Daily2018-08-28 17:56
https://www.r1.lt/casio-prw-7000-3er/80%Daily2018-08-28 16:51
https://www.r1.lt/kondicionuojantis-barzdos-ir-usu-sampunas-santalmedzio-aromato-200ml/80%Daily2018-08-28 16:33
https://www.r1.lt/redmi-6-xiaomi-64gb-mobilus-telefonas-gold/80%Daily2018-08-28 16:14
https://www.r1.lt/inavi-x1001b-zaisline-masina/80%Daily2018-08-28 15:31
https://www.r1.lt/casio-a168wegc-5ef/80%Daily2018-08-28 15:11
https://www.r1.lt/steelseries-arctis-3-ausines-gray/80%Daily2018-08-28 14:33
https://www.r1.lt/citizen-eu6002-01e/80%Daily2018-08-28 14:01
https://www.r1.lt/haier-hsdf-546wm-saldiklis/80%Daily2018-08-28 13:21
https://www.r1.lt/perfect-b7249-s001/80%Daily2018-08-28 13:15
https://www.r1.lt/jacques-lemans-1-1752m/80%Daily2018-08-28 12:55
https://www.r1.lt/casio-mtp-e133l-1eef/80%Daily2018-08-28 12:52
https://www.r1.lt/hp-external-ssd-p600-1tb-560-500-mb-s-usb-type-c/80%Daily2018-08-28 11:35
https://www.r1.lt/airsoft-ultimate-tactical-fast-salmas-olive/80%Daily2018-08-28 11:12
https://www.r1.lt/lg-24mp59g-p-monitorius-24/80%Daily2018-08-28 11:08
https://www.r1.lt/prestigio-muze-g7-lte-mobilus-telefonas-black/80%Daily2018-08-28 10:40
https://www.r1.lt/jacques-lemans-1-1117-1wn/80%Daily2018-08-28 09:59
https://www.r1.lt/adata-ud330-32-gb-usb-3-1-black/80%Daily2018-08-28 09:34
https://www.r1.lt/timberland-tbl-15476jsu-03/80%Daily2018-08-28 09:04
https://www.r1.lt/inavi-8070e-r-b-valdomas-viksrinis-ekskavatorius/80%Daily2018-08-28 07:56
https://www.r1.lt/inavi-1510-7a-traktorius-su-priekaba/80%Daily2018-08-28 06:57
https://www.r1.lt/lg-24mp68vq-p-monitorius-24/80%Daily2018-08-28 06:52
https://www.r1.lt/citizen-bi5002-06e/80%Daily2018-08-28 06:30
https://www.r1.lt/timberland-tbl-15029jlu-12/80%Daily2018-08-28 06:05
https://www.r1.lt/drekinanti-paakiu-kauke-princess-eye-patch-1-pora/80%Daily2018-08-28 05:25
https://www.r1.lt/lenovo-thinkpad-p52s-black-15-6-ips-full-hd-1920-x-1080-pixels-matt-intel-core-i7-i7-8550u-8-gb-ddr4-ssd-256-gb-nvidia-quadro-p500-gddr5-2-gb-no-optical-drive-windows-10-pro-8265/80%Daily2018-08-28 05:25
https://www.r1.lt/hp-m180n-laserjet-pro-mfp-spausdintuvas/80%Daily2018-08-28 05:23
https://www.r1.lt/adapter-kit-for-imac-and-apple-displays-vesa-75x75-1xlcd-max-27-from-2012/80%Daily2018-08-28 05:14
https://www.r1.lt/inavi-661-301-konstruktoriaus-rinkinys/80%Daily2018-08-28 04:58
https://www.r1.lt/inavi-9995-r-b-valdomas-tankas/80%Daily2018-08-28 04:08
https://www.r1.lt/gastroback-sausage-slicer-stainless-steel-130-w-48-mm/80%Daily2018-08-28 03:09
https://www.r1.lt/inavi-8061e-r-b-valdomas-kranas-viksrinis/80%Daily2018-08-28 01:36
https://www.r1.lt/esperanza-ekm008-ranku-maisytuvas-300w-3l-brownie/80%Daily2018-08-28 00:47
https://www.r1.lt/haier-hfrz-506wm-saldiklis/80%Daily2018-08-28 00:36
https://www.r1.lt/airsoft-asg-greengas-dujos/80%Daily2018-08-28 00:24
https://www.r1.lt/timberland-tbl-15488js-02/80%Daily2018-08-27 22:48
https://www.r1.lt/airsoft-g36k-sratasvydzio-automatas/80%Daily2018-08-27 22:29
https://www.r1.lt/timberland-tbl-15474jsgy-61/80%Daily2018-08-27 21:35
https://www.r1.lt/egg-pore-shiny-skin-soap-ranku-darbo-veido-muilas-2x50g/80%Daily2018-08-27 21:13
https://www.r1.lt/tissot-t101-410-16-031-00/80%Daily2018-08-27 20:15
https://www.r1.lt/haier-a3fe737cmj-saldytuvas/80%Daily2018-08-27 19:44
https://www.r1.lt/inavi-3507a-lele-su-priedais/80%Daily2018-08-27 19:34
https://www.r1.lt/asus-rt-ac1200g-marsrutizatorius/80%Daily2018-08-27 19:19
https://www.r1.lt/airsoft-g36c-sratasvydzio-automatas/80%Daily2018-08-27 18:23
https://www.r1.lt/timberland-tbl-15476jsb-02/80%Daily2018-08-27 18:18
https://www.r1.lt/timberland-tbl-15128js-07/80%Daily2018-08-27 17:58
https://www.r1.lt/casio-g-shock-ga-810b-1a4er/80%Daily2018-08-27 17:18
https://www.r1.lt/casio-la670wemb-1ef/80%Daily2018-08-27 17:06
https://www.r1.lt/gartraukis-candy-cft610-3s/80%Daily2018-08-27 16:58
https://www.r1.lt/jordan-kerr-b2239g-ips-black/80%Daily2018-08-27 16:54
https://www.r1.lt/hibridinis-nagu-lakas-super-trop-i-cal-i-fiji-istic-15-ml/80%Daily2018-08-27 16:53
https://www.r1.lt/hp-external-ssd-p800-512gb-2400-1200-mb-s-thunderbolt-3-type-c/80%Daily2018-08-27 16:04
https://www.r1.lt/iwalk-power-bank-sbs100c-secretary-plus-10000mah-li-ion-2/80%Daily2018-08-27 14:38
https://www.r1.lt/inavi-8054e-r-b-valdomas-kranas/80%Daily2018-08-27 14:07
https://www.r1.lt/haier-hmf-406x-saldytuvas/80%Daily2018-08-27 13:36
https://www.r1.lt/airsoft-we-glock-17-custom-sratasvydzio-pistoletas/80%Daily2018-08-27 13:24
https://www.r1.lt/inavi-q9899-174-zaisliniu-dinosauru-rinkinys/80%Daily2018-08-27 13:04
https://www.r1.lt/duso-gelis-lavender-750-ml/80%Daily2018-08-27 11:58
https://www.r1.lt/citizen-eo1184-81d/80%Daily2018-08-27 11:20
https://www.r1.lt/timberland-tbl-15129js-07/80%Daily2018-08-27 11:09
https://www.r1.lt/iwalk-qi-wireless-power-bank-charger-ubc8000a-8000-mah-black/80%Daily2018-08-27 10:10
https://www.r1.lt/inavi-av1385-lele/80%Daily2018-08-27 09:52
https://www.r1.lt/epson-c13t03v24a-101-ecotank-cy-rasalas-cyan/80%Daily2018-08-27 09:50
https://www.r1.lt/xiaomi-redmi-6-32gb-mobilus-telefonas-black/80%Daily2018-08-27 09:44
https://www.r1.lt/casio-g-shock-ga-1100-1a1er/80%Daily2018-08-27 08:57
https://www.r1.lt/eta-fresa-food-dryer-eta630190000-white-250-w-number-of-trays-8-temperature-control-integrated-timer/80%Daily2018-08-27 08:47
https://www.r1.lt/airsoft-l96-sratasvydzio-snaiperis-green/80%Daily2018-08-27 08:05
https://www.r1.lt/inavi-1509-3b-traktorius-su-priekaba/80%Daily2018-08-27 07:04
https://www.r1.lt/inavi-80310-namas-lelems-su-priedais/80%Daily2018-08-27 06:54
https://www.r1.lt/inavi-6141-r-b-valdoma-masina-rock-crawler/80%Daily2018-08-27 05:13
https://www.r1.lt/airsoft-we-glock-19-custom-sratasvydzio-pistoletas/80%Daily2018-08-27 05:00
https://www.r1.lt/jacques-lemans-1-1844za/80%Daily2018-08-27 04:03
https://www.r1.lt/timberland-tbl-15475jsb-02/80%Daily2018-08-27 04:02
https://www.r1.lt/cloer-4951-kettle-electric-water-kettle-plastic-stainless-steel-white-2200-w-360-rotational-base-1-7-l/80%Daily2018-08-27 03:38
https://www.r1.lt/timberland-tbl-15488js-07/80%Daily2018-08-27 01:30
https://www.r1.lt/acer-aspire-3-a315-53g-black-15-6-hd-1366-x-768-pixels-matt-intel-core-i5-i5-7200u-6-gb-ddr4-hdd-500-gb-5400-rpm-ssd-128-gb-nvidia-geforce-mx130-gddr5-2-gb-linux-802-11-ac-a-b-g-n/80%Daily2018-08-27 01:16
https://www.r1.lt/airsoft-ak-47-tactical-sratasvydzio-automatas/80%Daily2018-08-27 00:36
https://www.r1.lt/airsoft-we-glock-17-gen3-sratasvydzio-pistoletas-black/80%Daily2018-08-27 00:31
https://www.r1.lt/livestar-ldp100b-elektrinis-pianinas/80%Daily2018-08-26 23:35
https://www.r1.lt/inavi-rs6156a-r-b-valdomas-dinozauras/80%Daily2018-08-26 23:29
https://www.r1.lt/acer-aspire-3-a315-53g-black-15-6-hd-1366-x-768-pixels-matt-intel-core-i3-i3-7020u-4-gb-ddr4-hdd-1000-gb-5400-rpm-nvidia-geforce-mx130-gddr5-2-gb-linux-802-11-ac-a-b-g-n-bluetooth/80%Daily2018-08-26 22:06
https://www.r1.lt/venus-skustuvo-galvutes-4-vnt/80%Daily2018-08-26 21:43
https://www.r1.lt/prestigio-muze-e7-lte-mobilus-telefonas-black/80%Daily2018-08-26 21:19
https://www.r1.lt/epson-c13t03v34a101-ecotank-ma-rasalas-magenta/80%Daily2018-08-26 21:00
https://www.r1.lt/perfect-b7326-s001/80%Daily2018-08-26 20:17
https://www.r1.lt/hood-cata-podium-600-xgwh-wall-mounted-width-60-cm-560-m%c2%b3-h-white-glass-energy-efficiency-class-e-63-db/80%Daily2018-08-26 19:45
https://www.r1.lt/timberland-tbl-15014jsu-13/80%Daily2018-08-26 19:22
https://www.r1.lt/purskiama-priemone-brandiems-ziliems-plaukams-bonacure-excellium-beautifying-steel-100-ml/80%Daily2018-08-26 17:24
https://www.r1.lt/citizen-eu6004-56l/80%Daily2018-08-26 16:29
https://www.r1.lt/dozatorius-pompa-bonacure-1000ml-talpoms/80%Daily2018-08-26 15:45
https://www.r1.lt/airsoft-ultimate-tactical-fast-salmas-black/80%Daily2018-08-26 15:42
https://www.r1.lt/casio-mcw-100h-9a2vef/80%Daily2018-08-26 15:29
https://www.r1.lt/self-tan-extra-dark-bronzing-mousse-ypac-tamsaus-atspalvio-savaimio-idegio-putos-200-ml/80%Daily2018-08-26 15:20
https://www.r1.lt/eta-hair-dryers-eta032090000-rosalia-foldable-handle-1200-w-purple/80%Daily2018-08-26 14:16
https://www.r1.lt/lenovo-thinkpad-x380-yoga-black-13-3-ips-touchscreen-full-hd-1920-x-1080-pixels-gloss-intel-core-i7-i7-8550u-8-gb-ssd-512-gb-intel-uhd-windows-10-pro-8265-ac-bluetooth-version-4-1/80%Daily2018-08-26 14:05
https://www.r1.lt/timberland-tbl-15514jsr-02/80%Daily2018-08-26 09:42
https://www.r1.lt/timberland-tbl-15017js-03/80%Daily2018-08-26 09:14
https://www.r1.lt/citizen-bi5004-51l/80%Daily2018-08-26 08:09
https://www.r1.lt/casio-aw-80d-7aves/80%Daily2018-08-26 07:42
https://www.r1.lt/hp-external-ssd-p600-500gb-560-490-mb-s-usb-type-c/80%Daily2018-08-26 07:34
https://www.r1.lt/dell-latitude-3490-black-14-full-hd-1920-x-1080-pixels-matt-intel-core-i5-i5-8250u-8-gb-ddr4-ssd-256-gb-intel-uhd-no-optical-drive-windows-10-pro-802-11ac-bluetooth-version-4-1-key/80%Daily2018-08-26 05:22
https://www.r1.lt/timberland-tbl-15474jsgn-02/80%Daily2018-08-26 04:31
https://www.r1.lt/inavi-555-bx011-zaislinis-indu-rinkinys/80%Daily2018-08-26 04:29
https://www.r1.lt/epson-t6732-spausdintuvo-rasalas-70ml-cyan/80%Daily2018-08-26 01:38
https://www.r1.lt/xiaomi-mi-band-3-ismanioji-apyranke-black/80%Daily2018-08-26 01:37
https://www.r1.lt/haier-hmf-406s-saldytuvas/80%Daily2018-08-26 00:55
https://www.r1.lt/greito-idegio-putos-self-tan-express-advanced-200ml/80%Daily2018-08-26 00:37
https://www.r1.lt/citizen-bn4044-15e/80%Daily2018-08-25 23:19
https://www.r1.lt/gradual-tan-tinted-primer-laipsniskas-idegio-kremas-veidui-50-ml/80%Daily2018-08-25 22:57
https://www.r1.lt/inavi-6512-r-b-valdoma-masina-konstruktorius/80%Daily2018-08-25 22:51
https://www.r1.lt/perfect-b7249-s002/80%Daily2018-08-25 22:21
https://www.r1.lt/msi-gf63-8rc-057nl-15-5fhd-i7-8750h-8gb-1tb128gb-gtx1050-win10-nesiojamas-kompiuteris/80%Daily2018-08-25 21:49
https://www.r1.lt/jacques-lemans-1-1603h/80%Daily2018-08-25 21:10
https://www.r1.lt/hidrogelio-lupu-kauke-pink-peach-1-vnt/80%Daily2018-08-25 20:44
https://www.r1.lt/airsoft-emerson-fast-salmas-tan/80%Daily2018-08-25 20:22
https://www.r1.lt/jordan-kerr-i111l-iprg-black/80%Daily2018-08-25 20:10
https://www.r1.lt/citizen-bi5000-52e/80%Daily2018-08-25 18:19
https://www.r1.lt/casio-a168wem-1ef/80%Daily2018-08-25 18:05
https://www.r1.lt/timberland-tbl-15473jlk-53/80%Daily2018-08-25 16:48
https://www.r1.lt/inavi-3827a-r-b-valdomas-karo-laivas-battleship/80%Daily2018-08-25 16:46
https://www.r1.lt/perfect-b7249-rg001/80%Daily2018-08-25 14:37
https://www.r1.lt/airsoft-kwc-pm-makarov-sratasvydzio-pistoletas/80%Daily2018-08-25 14:04
https://www.r1.lt/stay-put-antakiu-gelis-chestnut-22g/80%Daily2018-08-22 12:10
https://www.r1.lt/ty-gear-gilda-pliusinis-zaislas-rankine/80%Daily2018-08-22 11:43
https://www.r1.lt/philips-65pus8503-12-led-televizorius/80%Daily2018-08-22 11:26
https://www.r1.lt/pierre-cardin-pc902282f02/80%Daily2018-08-22 11:05
https://www.r1.lt/3mk-ferya-skincase-back-cover-apple-iphone-6s-protective-foil-pink-matte/80%Daily2018-08-22 10:42
https://www.r1.lt/inavi-7133-medines-kaladeles/80%Daily2018-08-22 09:54
https://www.r1.lt/3mk-naturalcase-apple-iphone-6-6s-polypropylene-transparent-rosy/80%Daily2018-08-22 08:19
https://www.r1.lt/vandeniui-atsparus-gelinis-lupu-piestukas-natural/80%Daily2018-08-22 06:34
https://www.r1.lt/plauku-dziovintuvas-rowenta-cv3812-garantija-24-men-jonizavimo-funkcija-motoro-tipas-dc-2100-w-black-pink/80%Daily2018-08-22 05:41
https://www.r1.lt/pierre-cardin-pc902361f08/80%Daily2018-08-22 05:10
https://www.r1.lt/inavi-201-zaisline-karieta-su-lele/80%Daily2018-08-22 04:59
https://www.r1.lt/rubicon-rnad89sisx03bx/80%Daily2018-08-22 04:57
https://www.r1.lt/pierre-cardin-pc902352f06/80%Daily2018-08-22 04:55
https://www.r1.lt/orava-hot-airstyler-for-drying-and-styling-hair-kf-112-number-of-temperature-settings-2-styling-comb-600-w-black-white-purple/80%Daily2018-08-22 04:53
https://www.r1.lt/orava-rm-800-b-black-stainless-steel-hand-blender-800-w-ice-crushing-shaft-material-stainless-steel-mini-chopper/80%Daily2018-08-22 04:52
https://www.r1.lt/epson-installation-series-eb-2255u-wuxga-1920x1200-5000-ansi-lumens-15-0001-white-wi-fi/80%Daily2018-08-22 04:31
https://www.r1.lt/inavi-661-68in-irankiu-rinkinys/80%Daily2018-08-22 04:28
https://www.r1.lt/braun-electric-shaver-7893s-wet-use-rechargeable-charging-time-1-h-li-ion-network-battery-number-of-shaver-heads-blades-4-silver-black/80%Daily2018-08-22 04:28
https://www.r1.lt/samsung-galaxy-a6-a600-mobilus-telefonas-32gb-black-2/80%Daily2018-08-22 04:26
https://www.r1.lt/toshiba-49v5863dg-led-televizorius/80%Daily2018-08-22 01:43
https://www.r1.lt/monitorius-aoc-agon-ag322qc4-32-curved-mva-2560x1440-hdmi-usb-dp-d-sub/80%Daily2018-08-22 01:43
https://www.r1.lt/trust-22260-aiva-4p-usb-3-1-usb-sakotuvas/80%Daily2018-08-22 01:22
https://www.r1.lt/juguetronica-mad-racers-spinner-r-c-automobilis/80%Daily2018-08-21 23:21
https://www.r1.lt/ty-gear-kiki-pliusinis-zaislas-rankine/80%Daily2018-08-21 23:19
https://www.r1.lt/samsung-galaxy-j5-sm-j530fzkdseb-mobilus-telefonas-black-2017-2/80%Daily2018-08-21 22:30
https://www.r1.lt/aeg-hg654550sm-bi-kaitlente/80%Daily2018-08-21 22:27
https://www.r1.lt/orava-kettle-vk-3317-b-standard-plastic-black-2000-w-360-rotational-base-1-7-l/80%Daily2018-08-21 22:23
https://www.r1.lt/pierre-cardin-pc902221f09/80%Daily2018-08-21 21:52
https://www.r1.lt/electrolux-sp1classic-dulkiu-siurblys/80%Daily2018-08-21 21:41
https://www.r1.lt/skalbimo-masina-su-dziovinimu-electrolux-ew8w261b/80%Daily2018-08-21 20:12
https://www.r1.lt/lacie-d2-professional-35-10tb-usb-3-1-type-c/80%Daily2018-08-21 19:59
https://www.r1.lt/gastroback-vita-spin-fryer-black-2000-w-2-5-l/80%Daily2018-08-21 19:46
https://www.r1.lt/orava-kettle-vk-3717-standard-stainless-steel-stainless-steel-black-2000-w-360-rotational-base-1-7-l/80%Daily2018-08-21 18:52
https://www.r1.lt/inavi-922-12-pirkiniu-vezimelis/80%Daily2018-08-21 17:49
https://www.r1.lt/atstatomasis-drekinamasis-rinkinys-plaukams-daymoist-duo-kit-2x250-ml/80%Daily2018-08-21 17:43
https://www.r1.lt/besipucianciu-plauku-kondicionierius-argan-oil-thermoliss-240-ml/80%Daily2018-08-21 16:26
https://www.r1.lt/arozzi-arena-gaming-desk-green/80%Daily2018-08-21 16:20
https://www.r1.lt/deepcool-dq850-m-80-plus-gold-certified-850-w/80%Daily2018-08-21 16:12
https://www.r1.lt/trust-21857-gxt211-reyno-mikrofonas/80%Daily2018-08-21 15:40
https://www.r1.lt/kitchenaid-5ksb5553ems-plaktuvas-medallion-silver/80%Daily2018-08-21 15:35
https://www.r1.lt/trust-22736-gxt783-pele-ir-kilimelis/80%Daily2018-08-21 15:28
https://www.r1.lt/epson-lq-680-pro-dot-matrix-printer-white-grey/80%Daily2018-08-21 14:22
https://www.r1.lt/reporter-99830-isorine-baterija-2600mah-blue/80%Daily2018-08-21 14:11
https://www.r1.lt/kavos-aparatas-nivona-caferomatica-530/80%Daily2018-08-21 13:40
https://www.r1.lt/xiaomi-mi-band-2-ismanusis-laikrodis-black/80%Daily2018-08-21 13:31
https://www.r1.lt/pierre-cardin-pc902342f06/80%Daily2018-08-21 13:09
https://www.r1.lt/indesit-btw-d61053-eu-skalbimo-masina/80%Daily2018-08-21 12:59
https://www.r1.lt/braun-genius-9000-cross-action-d701-545-6xc-dantu-sepetelis-white/80%Daily2018-08-21 12:15
https://www.r1.lt/tp-link-tl-sg1005d-sakotuvas-switch/80%Daily2018-08-21 12:11
https://www.r1.lt/orava-multifunctional-hot-airstyler-for-drying-and-styling-hair-kf-300-number-of-temperature-settings-2-styling-comb-1000-w-black-brown/80%Daily2018-08-21 11:53
https://www.r1.lt/transcend-ts8gusdu1-8gb-sdhc-uhs-i-c10-atminties-kortele/80%Daily2018-08-21 10:55
https://www.r1.lt/pierre-cardin-pc902342f05/80%Daily2018-08-21 10:31
https://www.r1.lt/inavi-8033-namas-lelems-su-priedais/80%Daily2018-08-21 10:26
https://www.r1.lt/huawei-color-band-a2-ismanioji-apyranke-yellow-green/80%Daily2018-08-21 10:21
https://www.r1.lt/orava-kettle-vk-3513-g-standard-plastic-white-green-1000-w-360-rotational-base-1-2-l/80%Daily2018-08-21 09:27
https://www.r1.lt/orava-kettle-vk-3513-p-standard-plastic-white-pink-1000-w-360-rotational-base-1-2-l/80%Daily2018-08-21 09:24
https://www.r1.lt/panasonic-es-el2a-a503-epiliatorius/80%Daily2018-08-21 09:18
https://www.r1.lt/pierre-cardin-pc902352f07/80%Daily2018-08-21 08:47
https://www.r1.lt/juguetronica-robotron-programuojamas-robotas/80%Daily2018-08-21 08:06
https://www.r1.lt/dell-s2419h-24-monitorius/80%Daily2018-08-21 07:36
https://www.r1.lt/inavi-922-42-zaislinis-virtuves-rinkinys/80%Daily2018-08-21 07:30
https://www.r1.lt/vandeniui-atsparus-gelinis-lupu-piestukas-cinnamon/80%Daily2018-08-21 07:23
https://www.r1.lt/epson-ecotank-its-l4150-daugiafunkcinis-spausdintuvas-black/80%Daily2018-08-21 07:09
https://www.r1.lt/besipucianciu-plauku-sampunas-argan-oil-thermoliss-240-ml/80%Daily2018-08-21 07:01
https://www.r1.lt/asus-tp412ua-ec056t-vivobook-14fhd-i3-7020u-4gb-256gbssd-intelhd-win10h-en-nesiojamas-kompiuteris/80%Daily2018-08-21 06:57
https://www.r1.lt/pierre-cardin-pc902332f04/80%Daily2018-08-21 06:34
https://www.r1.lt/casio-aw-80-7avef/80%Daily2018-08-21 06:34
https://www.r1.lt/bosch-tda2325-laidyne/80%Daily2018-08-21 06:08
https://www.r1.lt/rinkinys-avtek-tt-board-80-pro-vivitek-dx881st-wallmount-next-1200-accessor-2/80%Daily2018-08-21 05:33
https://www.r1.lt/trust-22191-gxt212-mikrofonas/80%Daily2018-08-21 05:23
https://www.r1.lt/pierre-cardin-pc902332f01/80%Daily2018-08-21 05:20
https://www.r1.lt/samsung-vl551-en-garso-sistema/80%Daily2018-08-21 04:52
https://www.r1.lt/huawei-color-band-a2-ismanioji-apyranke-red/80%Daily2018-08-21 03:59
https://www.r1.lt/orava-fruit-and-vegetable-juicer-os-111-type-centrifugal-stainless-steel-1000-w-extra-large-fruit-input-number-of-speeds-1-1200-rpm/80%Daily2018-08-21 03:34
https://www.r1.lt/inavi-cm557-81-zaisline-trasa/80%Daily2018-08-21 03:30
https://www.r1.lt/inavi-60020-konstruktorius/80%Daily2018-08-21 02:15
https://www.r1.lt/lenovo-gx40q17228-b210-15-6-nesiojamo-kompiuterio-kuprine-green/80%Daily2018-08-21 01:51
https://www.r1.lt/dell-xps-15-9575-silver-15-6-ips-touchscreen-full-hd-1920-x-1080-pixels-matt-intel-core-i7-i7-8705g-8-gb-ddr4-ssd-512-gb-amd-radeon-rx-vega-870-4-gb-windows-10-pro-802-11ac-keyboard-2/80%Daily2018-08-21 00:19
https://www.r1.lt/lenovo-gx30k69567-yoga-pele-golden/80%Daily2018-08-20 23:50
https://www.r1.lt/haier-freezer-huz-546w-upright-aukstis-143-cm-bendra-talpa-neto-170-l-a-saldiklio-lentynu-stalciu-skaicius-6-white-free-standing/80%Daily2018-08-20 23:45
https://www.r1.lt/juguetronica-netbot-r-c-automobilis-su-hd-kamera/80%Daily2018-08-20 23:16
https://www.r1.lt/monitorius-aoc-22b1h-22-tn-fullhd-vga-hdmi/80%Daily2018-08-20 22:47
https://www.r1.lt/jordan-kerr-i112-iprg-black/80%Daily2018-08-20 22:00
https://www.r1.lt/allview-p43-easy-4-0-dual-sim-8gb-black-mobilus-telefonas/80%Daily2018-08-20 21:35
https://www.r1.lt/karcher-1-198-125kar-vc-3-vakuuminis-siurblys/80%Daily2018-08-20 20:45
https://www.r1.lt/blakstienu-tusas-volumizing-mascara-9-g/80%Daily2018-08-20 19:52
https://www.r1.lt/kavos-aparatas-nivona-caferomatica-520/80%Daily2018-08-20 19:50
https://www.r1.lt/beurer-ts19-sildoma-paklode/80%Daily2018-08-20 19:43
https://www.r1.lt/skalbimo-masina-su-dziovinimu-electrolux-ew7w361s/80%Daily2018-08-20 19:09
https://www.r1.lt/monitorius-iiyama-b2875uhsu-b1-28-4k-d-sub-dvi-hdmimhl-dp-usbx3-garsiak/80%Daily2018-08-20 18:00
https://www.r1.lt/casio-mtf-111d-7aef/80%Daily2018-08-20 17:32
https://www.r1.lt/juguetronica-blueray-plazminis-rutulys/80%Daily2018-08-20 17:31
https://www.r1.lt/inavi-6513-r-b-valdoma-masina-konstruktorius/80%Daily2018-08-20 17:14
https://www.r1.lt/twistup-issukamas-antakiu-piestukas-cocoa-03g/80%Daily2018-08-20 17:06
https://www.r1.lt/pierre-cardin-pc108091f02/80%Daily2018-08-20 17:05
https://www.r1.lt/juguetronica-usb-plazminis-rutulys/80%Daily2018-08-20 15:38
https://www.r1.lt/aeg-t8dea68s-dziovinimo-masina/80%Daily2018-08-20 14:56
https://www.r1.lt/inavi-866a-1-zaislinis-traukinys/80%Daily2018-08-20 14:10
https://www.r1.lt/miele-wci670-wps-skalbimo-masina/80%Daily2018-08-20 13:58
https://www.r1.lt/dell-xps-15-9575-silver-15-6-ips-touchscreen-full-hd-1920-x-1080-pixels-matt-intel-core-i5-i5-8305g-8-gb-ddr4-ssd-256-gb-amd-radeon-rx-vega-870-4-gb-windows-10-pro-802-11ac-keyboard/80%Daily2018-08-20 13:52
https://www.r1.lt/kavos-aparatas-nivona-caferomatica-660/80%Daily2018-08-20 12:39
https://www.r1.lt/inavi-wy201-zaislinis-garazas/80%Daily2018-08-20 12:35
https://www.r1.lt/jordan-kerr-fw010w-iprg-nylon/80%Daily2018-08-20 12:04
https://www.r1.lt/philips-hx9062-33-w3-premium-white-elektrinio-dantu-sepetelio-galvute-2vnt/80%Daily2018-08-20 11:28
https://www.r1.lt/juguetronica-spin-battle-elektroninis-zaislas/80%Daily2018-08-20 11:25
https://www.r1.lt/jordan-kerr-8106g-ips-green/80%Daily2018-08-20 11:23
https://www.r1.lt/beko-csa365k30w-saldytuvas/80%Daily2018-08-20 10:13
https://www.r1.lt/pierre-cardin-pc902371f04/80%Daily2018-08-20 10:02
https://www.r1.lt/pierre-cardin-pc902342f07/80%Daily2018-08-20 09:56
https://www.r1.lt/mineraliniai-lupu-dazai-cherry-pop-35-g/80%Daily2018-08-20 09:29
https://www.r1.lt/mineraliniai-lupu-dazai-bellalicious-35-g/80%Daily2018-08-20 08:59
https://www.r1.lt/kitchenaid-5kmt2204-ems-skrudintuvas-medallion-silver/80%Daily2018-08-20 08:47
https://www.r1.lt/mineralinis-lupu-kremas-kiss-proof-hothead-3-8-ml/80%Daily2018-08-20 08:33
https://www.r1.lt/mineraliniai-lupu-dazai-ruby-35-g/80%Daily2018-08-20 08:10
https://www.r1.lt/jordan-kerr-i112-iprg-red/80%Daily2018-08-20 07:54
https://www.r1.lt/orava-food-dehydrator-su-104-white-250-w-number-of-trays-5-temperature-control/80%Daily2018-08-20 07:52
https://www.r1.lt/super-gloss-lupu-blizgis-vanilla-pink-9ml/80%Daily2018-08-20 06:45
https://www.r1.lt/lenovo-gx30k69572-yoga-pele/80%Daily2018-08-20 06:25
https://www.r1.lt/mineraliniai-lupu-dazai-va-va-voom-35-g/80%Daily2018-08-20 06:20
https://www.r1.lt/inavi-661-75-zaislinis-rinkinys-my-kitchen/80%Daily2018-08-20 06:17
https://www.r1.lt/trust-21248-primo-15-6-kompiuterio-krepsys-black/80%Daily2018-08-20 05:10
https://www.r1.lt/samsung-vl350-en-garso-sistema/80%Daily2018-08-20 04:42
https://www.r1.lt/inavi-cm557-80-zaisline-trasa/80%Daily2018-08-20 03:28
https://www.r1.lt/xiaomi-redmi-note-5-32gb-mobilus-telefonas-gold/80%Daily2018-08-20 03:21
https://www.r1.lt/vandeniui-atsparus-gelinis-lupu-piestukas-nude/80%Daily2018-08-20 03:13
https://www.r1.lt/monitorius-iiyama-e1980sd-b1-a-19-d-sub-dvi-garsiakal/80%Daily2018-08-20 02:58
https://www.r1.lt/whirlpool-w7-om4-4s1-p-bl-imontuojama-orkaite/80%Daily2018-08-20 02:06
https://www.r1.lt/inavi-zy1908a-zaidimas-lankas-su-strelemis/80%Daily2018-08-20 01:15
https://www.r1.lt/juguetronica-mad-racers-tracker-r-c-automobilis/80%Daily2018-08-20 00:33
https://www.r1.lt/dji-spark-alpine-white-remote-controller-set/80%Daily2018-08-19 23:49
https://www.r1.lt/lenovo-gx40q17225-b210-15-6-nesiojamo-kompiuterio-kuprine-black/80%Daily2018-08-19 23:47
https://www.r1.lt/epson-perfection-v850-skaitytuvas/80%Daily2018-08-19 23:42
https://www.r1.lt/orava-vp-901-aw-staline-elektrine-kaitlente/80%Daily2018-08-19 22:53
https://www.r1.lt/asus-x507ma-ej056t-nesiojamas-kompiuteris-15-6fhd-n5000-4gb-128gbssd-inteluhd-win10-en-grey/80%Daily2018-08-19 22:28
https://www.r1.lt/inavi-92081-zaislinis-garazas/80%Daily2018-08-19 21:23
https://www.r1.lt/pierre-cardin-pc902332f03/80%Daily2018-08-19 20:49
https://www.r1.lt/jvc-kd-x151-usb-mp3-magnetola/80%Daily2018-08-19 20:41
https://www.r1.lt/rinkinys-po-tiesinimo-keratinu-ir-botohair-proceduru-pos-progress-kit-2x250-ml/80%Daily2018-08-19 19:57
https://www.r1.lt/karcher-1-195-220kar-ds-6-dulkiu-siurblys-su-vandens-filtru/80%Daily2018-08-19 19:21
https://www.r1.lt/mineralinis-skruostu-ir-lupu-gelis-dazai-coral-5-g/80%Daily2018-08-19 19:13
https://www.r1.lt/asus-4g-ac53u-10-100-1000-mbit-s-ethernet-lan-rj-45-ports-2-2-4ghz-5ghz-wi-fi-standards-802-11a-b-g-n-ac-antenna-type-external-antennas-quantity-2-usb-ports-quantity-1/80%Daily2018-08-19 18:46
https://www.r1.lt/besiriebaluojanciu-plauku-rinkinys-fresh-ginger-kit-2x250-ml/80%Daily2018-08-19 18:32
https://www.r1.lt/panasonic-er-gk60-s503-kuno-skustuvas/80%Daily2018-08-19 17:56
https://www.r1.lt/panasonic-es-el3a-n503-epiliatorius/80%Daily2018-08-19 17:46
https://www.r1.lt/panasonic-er-gb52-s503-plauku-barzdos-kirpimo-masinele/80%Daily2018-08-19 17:21
https://www.r1.lt/inavi-6026-zaislinis-robotas/80%Daily2018-08-19 17:18
https://www.r1.lt/sigma-135-mm-f1-8-dg-hsm-sony-e-mount-art/80%Daily2018-08-19 17:10
https://www.r1.lt/netatmo-nwm01-ww-sienos-laikiklis/80%Daily2018-08-19 16:32
https://www.r1.lt/inavi-7658-masina-paspirtukas/80%Daily2018-08-19 16:00
https://www.r1.lt/rubicon-rnad89risx03bx/80%Daily2018-08-19 15:27
https://www.r1.lt/panasonic-er-gb86-k503-plauku-barzdos-kirpimo-masinele/80%Daily2018-08-19 14:36
https://www.r1.lt/orava-kitchen-scale-ev-8-a-maximum-weight-capacity-5-kg-graduation-1-g-display-type-lcd-white/80%Daily2018-08-19 13:58
https://www.r1.lt/tefal-hb65kd38-hand-blender-1000w-20-speeds-black-silver/80%Daily2018-08-19 13:52
https://www.r1.lt/skystas-akiu-konturo-apvadas-black-4ml/80%Daily2018-08-19 13:51
https://www.r1.lt/orava-blender-rm-2000-white-2000-w-2-l-ice-crushing-32000-rpm-type-tabletop/80%Daily2018-08-19 11:58
https://www.r1.lt/reporter-99840-isorine-baterija-2600mah-green/80%Daily2018-08-19 11:17
https://www.r1.lt/lenovo-gx40m52025-nava-classic-15-6-nesiojamo-kompiuterio-kuprine-blue/80%Daily2018-08-19 11:05
https://www.r1.lt/inavi-p820-a-zaislinis-garazas/80%Daily2018-08-19 10:24
https://www.r1.lt/jordan-kerr-i112-iprg-yelow/80%Daily2018-08-19 09:43
https://www.r1.lt/aeg-iae64843fb-indukcine-kaitlente/80%Daily2018-08-19 08:50
https://www.r1.lt/lenovo-gx30m39704-300-usb-pele/80%Daily2018-08-19 08:00
https://www.r1.lt/oral-b-junior-pro-sens-6-elektrinis-dantu-sepetelisdeklas/80%Daily2018-08-19 07:26
https://www.r1.lt/inavi-7665-masina-paspirtukas/80%Daily2018-08-19 07:21
https://www.r1.lt/deepcool-dq650-m-80-plus-gold-certified-650-w/80%Daily2018-08-19 06:09
https://www.r1.lt/bosch-microwave-oven-bfl524ms0-20-l-retractable-rotary-knob-round-start-button-touch-control-800-w-black-stainless-steel-built-in-defrost-function/80%Daily2018-08-19 05:58
https://www.r1.lt/reporter-99800-isorine-baterija-2600mah-pink/80%Daily2018-08-19 04:57
https://www.r1.lt/rubicon-rnad89bibx03bx/80%Daily2018-08-19 04:31
https://www.r1.lt/mineralinis-bb-kremas-light-40ml/80%Daily2018-08-19 04:14
https://www.r1.lt/davidoff-cafe-creme-kavos-pupeles-500gr/80%Daily2018-08-19 03:39
https://www.r1.lt/kavos-aparatas-nivona-cafe-romatica-758/80%Daily2018-08-19 03:24
https://www.r1.lt/orava-food-dehydrator-su-102-white-230-w-number-of-trays-5-temperature-control/80%Daily2018-08-19 03:18
https://www.r1.lt/dell-latitude-3590-black-15-6-full-hd-1920-x-1080-pixels-matt-intel-core-i5-i5-7200u-8-gb-ddr4-hdd-1000-gb-5400-rpm-intel-uhd-no-optical-drive-windows-10-pro-802-11ac-bluetooth-versi/80%Daily2018-08-19 02:23
https://www.r1.lt/trust-21993-starzz-mikrofonas-usb-3-5-mm-mic/80%Daily2018-08-19 02:22
https://www.r1.lt/samsung-vl351-en-garso-sistema/80%Daily2018-08-19 02:17
https://www.r1.lt/3mk-ferya-skincase-back-cover-apple-iphone-5s-protective-foil-night-blue-matte/80%Daily2018-08-19 01:54
https://www.r1.lt/lenovo-ideapad-330-nesiojamas-kompiuteris-15-5fhd-n4000-4gb-128ssd-w10-onyx-black/80%Daily2018-08-19 01:49
https://www.r1.lt/juguetronica-robotai-boksininkai/80%Daily2018-08-19 01:07
https://www.r1.lt/allview-a9-plus-dual-sim-5-34-8gb-black-mobilus-telefonas/80%Daily2018-08-19 00:30
https://www.r1.lt/juguetronica-hydraulic-arm-robotas/80%Daily2018-08-19 00:22
https://www.r1.lt/epson-ecotank-its-l3070-daugiafunkcinis-spausdintuvas-black/80%Daily2018-08-18 23:42
https://www.r1.lt/panasonic-er-sb40-k803-plauku-barzdos-kirpimo-masinele/80%Daily2018-08-18 23:21
https://www.r1.lt/mineraline-pudra-latte-9-g/80%Daily2018-08-18 22:08
https://www.r1.lt/deepcool-dq750-m-80-plus-gold-certified-750-w/80%Daily2018-08-18 21:50
https://www.r1.lt/epson-ecotank-its-l4160-daugiafunkcinis-spausdintuvas-black/80%Daily2018-08-18 21:29
https://www.r1.lt/orava-personal-scale-ev-500-bt-maximum-weight-capacity-180-kg-accuracy-100-g-multiple-users-white-glass/80%Daily2018-08-18 20:06
https://www.r1.lt/pierre-cardin-pc902352f05/80%Daily2018-08-18 19:51
https://www.r1.lt/kompaktine-mineraline-pudra-cinnamon-10-g/80%Daily2018-08-18 19:30
https://www.r1.lt/orava-eg-200-elektrinis-grilis/80%Daily2018-08-18 19:29
https://www.r1.lt/orava-kettle-vk-3217-s-standard-stainless-steel-stainless-steel-2000-w-360-rotational-base-1-7-l/80%Daily2018-08-18 19:26
https://www.r1.lt/panasonic-rp-hf300e-k-ausines-black/80%Daily2018-08-18 18:11
https://www.r1.lt/orava-vk-150-tea-maker-glass-teapot-with-stainless-steel-strainer-transparent-1-5-l/80%Daily2018-08-18 17:43
https://www.r1.lt/akiu-seseliu-palete-pro-natural-12-atspalviu/80%Daily2018-08-18 16:50
https://www.r1.lt/philips-bhb862-00-plauku-garbanojimo-znyples/80%Daily2018-08-18 16:47
https://www.r1.lt/ty-gear-fantasia-pliusinis-zaislas-rankine/80%Daily2018-08-18 16:20
https://www.r1.lt/tefal-fv3970e0-laidyne/80%Daily2018-08-18 15:46
https://www.r1.lt/panasonic-rp-hf300e-p-ausines-pink/80%Daily2018-08-18 15:13
https://www.r1.lt/orava-hair-dryer-hd-421-2200-w-black-purple/80%Daily2018-08-18 14:36
https://www.r1.lt/pierre-cardin-pc902371f05/80%Daily2018-08-18 14:28
https://www.r1.lt/juguetronica-bubble-machine-elektroninis-zaislas/80%Daily2018-08-18 13:54
https://www.r1.lt/lacie-d2-professional-35-6tb-usb-3-1-type-c/80%Daily2018-08-18 13:29
https://www.r1.lt/pierre-cardin-pc902352f01/80%Daily2018-08-18 12:31
https://www.r1.lt/juguetronica-robotic-arm-programuojamas-robotas/80%Daily2018-08-18 10:57
https://www.r1.lt/pierre-cardin-pc902371f01/80%Daily2018-08-18 10:42
https://www.r1.lt/repair-anti-age-jauninantis-rekonstrukcinis-komplektas-24-ml/80%Daily2018-08-18 10:14
https://www.r1.lt/pierre-cardin-pc902342f02/80%Daily2018-08-18 10:02
https://www.r1.lt/pierre-cardin-pc902332f02/80%Daily2018-08-18 09:37
https://www.r1.lt/epson-l805-spalvotas-spausdintuvas-black/80%Daily2018-08-18 09:25
https://www.r1.lt/perfect-b7320-rg001/80%Daily2018-08-18 09:01
https://www.r1.lt/gastroback-advanced-scale-pro-46014-vacuum-sealer-fully-automatic-or-manual-black-120-w/80%Daily2018-08-18 08:41
https://www.r1.lt/xiaomi-mi-power-bank-2s-lithium-polymer-10000-mah/80%Daily2018-08-18 06:45
https://www.r1.lt/daewoo-kor6s3dbk-mikrobangu-krosnele/80%Daily2018-08-18 06:21
https://www.r1.lt/braun-ccr-31-kartridzas/80%Daily2018-08-18 06:07
https://www.r1.lt/panasonic-rp-hf300e-w-ausines-white/80%Daily2018-08-18 05:17
https://www.r1.lt/juguetronica-multibots-robotas/80%Daily2018-08-18 05:08
https://www.r1.lt/pierre-cardin-pc902332f07/80%Daily2018-08-18 04:43
https://www.r1.lt/inavi-1206b-namas-lelems-su-priedais/80%Daily2018-08-18 04:35
https://www.r1.lt/ty-gear-dotty-pliusinis-zaislas-rankine/80%Daily2018-08-18 03:05
https://www.r1.lt/juguetronica-elektronine-laboratorija/80%Daily2018-08-18 03:05
https://www.r1.lt/iwalk-power-bank-ubt12000x-scorpion-12000-mah-black/80%Daily2018-08-18 02:38
https://www.r1.lt/twistup-issukamas-antakiu-piestukas-deep-brown-03g/80%Daily2018-08-18 01:20
https://www.r1.lt/mineralinis-lupu-kremas-kiss-proof-antique-pink-3-8-ml/80%Daily2018-08-18 01:17
https://www.r1.lt/daewoo-fn-15a2w-saldytuvas/80%Daily2018-08-18 00:59
https://www.r1.lt/jvc-kd-x152-usb-mp3-magnetola/80%Daily2018-08-18 00:43
https://www.r1.lt/dell-p2419h-24-monitorius/80%Daily2018-08-18 00:18
https://www.r1.lt/rubicon-rnbd95visx03bx/80%Daily2018-08-17 23:55
https://www.r1.lt/orava-toaster-hr-104-white-plastic-650-w-number-of-slots-2-number-of-power-levels-6/80%Daily2018-08-17 23:17
https://www.r1.lt/pierre-cardin-pc902361f07/80%Daily2018-08-17 23:10
https://www.r1.lt/3mk-ferya-skincase-back-cover-apple-iphone-5s-protective-foil-silver-matte/80%Daily2018-08-17 23:08
https://www.r1.lt/sigma-14mm-f1-8-dg-hsm-sony-e-mount-art/80%Daily2018-08-17 22:46
https://www.r1.lt/dell-p2319h-23-monitorius/80%Daily2018-08-17 22:39
https://www.r1.lt/juguetronica-magic-air-levitation-shooter-elektroninis-zaislas/80%Daily2018-08-17 22:39
https://www.r1.lt/pierre-cardin-pc902332f06/80%Daily2018-08-17 22:14
https://www.r1.lt/3mk-ferya-skincase-back-cover-apple-iphone-6-protective-foil-pink-matte/80%Daily2018-08-17 22:05
https://www.r1.lt/reporter-99820-isorine-baterija-2600mah-grey/80%Daily2018-08-17 20:57
https://www.r1.lt/reporter-99810-isorine-baterija-2600mah-orange/80%Daily2018-08-17 19:51
https://www.r1.lt/trust-22697-yero-10-plansetinio-kompiuterio-deklas/80%Daily2018-08-17 19:40
https://www.r1.lt/pierre-cardin-pc902361f03/80%Daily2018-08-17 19:28
https://www.r1.lt/tefal-hb877d-trintuvas/80%Daily2018-08-17 19:00
https://www.r1.lt/panasonic-es-rl21-s503-shaver-panasonic-warranty-24-months/80%Daily2018-08-17 18:56
https://www.r1.lt/kitchenaid-5kmt2204-eca-skrudintuvas-candy-apple/80%Daily2018-08-17 18:10
https://www.r1.lt/graef-black-128-w-w/80%Daily2018-08-17 17:54
https://www.r1.lt/trust-20400-arch-nesiojamo-kompiuterio-ausinimo-stovas/80%Daily2018-08-17 17:29
https://www.r1.lt/pierre-cardin-pc902371f03/80%Daily2018-08-17 17:19
https://www.r1.lt/3mk-ferya-skincase-back-cover-apple-iphone-6s-protective-foil-glossy-dark-blue/80%Daily2018-08-17 17:13
https://www.r1.lt/precious-24k-gold-veido-sveitiklis-su-aukso-dalelemis-50g/80%Daily2018-08-17 15:33
https://www.r1.lt/pierre-cardin-pc902352f02/80%Daily2018-08-17 14:45
https://www.r1.lt/mineralinis-lupu-kremas-kiss-proof-nude-3-8-ml/80%Daily2018-08-17 14:37
https://www.r1.lt/orava-kettle-vk-3520-ag-standard-plastic-white-green-2000-w-360-rotational-base-2-l/80%Daily2018-08-17 14:34
https://www.r1.lt/3mk-flexibleglass-7-transparent-screen-protector-navitel-t700-3g-t500-hybrid-glass/80%Daily2018-08-17 13:17
https://www.r1.lt/epson-l-l310-spausdintuvas/80%Daily2018-08-17 12:25
https://www.r1.lt/mineralinis-lupu-kremas-kiss-proof-coral-stone-3-8-ml/80%Daily2018-08-17 12:18
https://www.r1.lt/super-gloss-lupu-blizgis-bubblegum-9ml/80%Daily2018-08-17 12:11
https://www.r1.lt/juguetronica-robotas-paukstis/80%Daily2018-08-17 11:57
https://www.r1.lt/pierre-cardin-pc902371f06/80%Daily2018-08-17 11:14
https://www.r1.lt/atkuriamoji-plauku-kauke-help-450-g/80%Daily2018-08-17 11:00
https://www.r1.lt/super-gloss-lupu-blizgis-chocolate-cream-9ml/80%Daily2018-08-17 09:45
https://www.r1.lt/inavi-661-79-zaislinis-rinkinys-supermarket/80%Daily2018-08-17 09:12
https://www.r1.lt/panasonic-er-sc40-k803-plauku-kirpimo-masinele/80%Daily2018-08-17 09:04
https://www.r1.lt/pierre-cardin-pc902211f03/80%Daily2018-08-17 08:57
https://www.r1.lt/nescafe-dolce-gusto-espresso-honduras-kava-72g/80%Daily2018-08-17 08:57
https://www.r1.lt/orava-hair-dryer-hd-400-s-foldable-handle-1000-w-black-silver/80%Daily2018-08-17 08:19
https://www.r1.lt/juguetronica-hovercrash-game-r-c-automobilis-2-vnt/80%Daily2018-08-17 08:02
https://www.r1.lt/arozzi-arena-gaming-desk-blue/80%Daily2018-08-17 07:39
https://www.r1.lt/electrolux-eapc55eb-dulkiu-siurblys/80%Daily2018-08-17 07:31
https://www.r1.lt/trust-22861-primo-qi-10w-kroviklis-black/80%Daily2018-08-17 07:27
https://www.r1.lt/audio-technica-headphones-with-built-in-mic-and-controls-ath-s200btwh-headband-on-ear-bluetooth-white-no-yes/80%Daily2018-08-17 07:15
https://www.r1.lt/3mk-ferya-skincase-back-cover-apple-iphone-5s-protective-foil-camelion-gold/80%Daily2018-08-17 06:06
https://www.r1.lt/arozzi-arena-gaming-desk-pure-black/80%Daily2018-08-17 06:05
https://www.r1.lt/acer-aspire-3-a315-53g-black-15-6-hd-1366-x-768-pixels-matt-intel-core-i3-i3-7020u-4-gb-ddr4-hdd-1000-gb-5400-rpm-nvidia-geforce-mx130-gddr5-2-gb-windows-10-home-802-11-ac-a-b-g-n-b/80%Daily2018-08-17 05:42
https://www.r1.lt/electrolux-ew6s226cx-skalbimo-masina/80%Daily2018-08-17 04:42
https://www.r1.lt/3mk-ferya-skincase-back-cover-apple-iphone-5s-protective-foil-glossy-gold/80%Daily2018-08-17 04:17
https://www.r1.lt/xiaomi-mi-power-bank-2c-lithium-ion-polymer-20000-mah/80%Daily2018-08-17 03:59
https://www.r1.lt/juguetronica-mad-racers-snake-r-c-automobilis/80%Daily2018-08-17 03:36
https://www.r1.lt/orava-blender-rm-1550-black-1500-w-2-l-ice-crushing-30000-rpm-type-tabletop/80%Daily2018-08-17 02:37
https://www.r1.lt/nescafe-dolce-gusto-espresso-peru-kava-84g/80%Daily2018-08-17 02:02
https://www.r1.lt/jordan-kerr-i112-ips-black/80%Daily2018-08-16 23:46
https://www.r1.lt/electrolux-edb1730-laidyne/80%Daily2018-08-16 23:30
https://www.r1.lt/precious-diamonds-drekinamasis-kuno-sviestas-su-deimantu-dulkemis-250g/80%Daily2018-08-16 23:23
https://www.r1.lt/inavi-223b-zaisline-karieta/80%Daily2018-08-16 23:10
https://www.r1.lt/3mk-hardglass-max-screen-protector-huawei-mate-10-lite-tempered-glass-transparent-white/80%Daily2018-08-16 22:57
https://www.r1.lt/mineralinis-lupu-kremas-kiss-proof-40s-red-3-8-ml/80%Daily2018-08-16 22:54
https://www.r1.lt/port-connect-universal-power-adapter-for-notebooks-up-to-45-w-eu-plug-ac-adapter-45-w-19-v-ds19-v-2-36-a/80%Daily2018-08-16 21:45
https://www.r1.lt/inavi-e562-003-r-b-valdoma-masina-su-priekaba/80%Daily2018-08-16 21:39
https://www.r1.lt/juguetronica-electro-labyrinth-elektroninis-zaislas/80%Daily2018-08-16 21:13
https://www.r1.lt/samsung-vl550-en-garso-sistema/80%Daily2018-08-16 21:06
https://www.r1.lt/acer-aspire-3-a315-51-black-15-6-hd-1366-x-768-pixels-matt-intel-core-i3-i3-6006u-4-gb-ddr4-hdd-500-gb-5400-rpm-intel-hd-no-optical-drive-windows-10-home-802-11-ac-a-b-g-n-bluetooth/80%Daily2018-08-16 20:39
https://www.r1.lt/beyerdynamic-studio-headphones/80%Daily2018-08-16 19:34
https://www.r1.lt/xiaomi/80%Daily2018-08-16 19:32
https://www.r1.lt/pierre-cardin-pc902371f07/80%Daily2018-08-16 18:56
https://www.r1.lt/toshiba-43v5863dg-led-televizorius/80%Daily2018-08-16 18:44
https://www.r1.lt/trevi-ra-764-radijo-imtuvas-dual-band-black/80%Daily2018-08-16 17:56
https://www.r1.lt/inavi-8698a1-lele/80%Daily2018-08-16 17:54
https://www.r1.lt/karcher-1-324-100kar-k-4-premium-full-control-auksto-slegio-plovykla/80%Daily2018-08-16 17:48
https://www.r1.lt/electrolux-ehf3920bok-elektrine-kaitlente-2/80%Daily2018-08-16 17:36
https://www.r1.lt/asus-fx570ud-dm205t-nesiojamas-kompiuteris-15-6fhd-i5-8250u-8gb-1tb128gbssd-gtx1050-win10h/80%Daily2018-08-16 16:28
https://www.r1.lt/inavi-pye43-zaislinis-traukinys/80%Daily2018-08-16 16:13
https://www.r1.lt/orava-kitchen-scale-ev-2-maximum-weight-capacity-5-kg-graduation-1-g-display-type-lcd-white/80%Daily2018-08-16 16:04
https://www.r1.lt/dell-xps-15-9575-silver-15-6-ips-touchscreen-full-hd-1920-x-1080-pixels-matt-intel-core-i5-i5-8305g-8-gb-ddr4-ssd-256-gb-amd-radeon-rx-vega-870-4-gb-windows-10-pro-802-11ac-keyboard-2/80%Daily2018-08-16 15:58
https://www.r1.lt/orava-fruit-and-vegetable-juicer-os-150-type-slow-juicer-stainless-steel-black-150-w-extra-large-fruit-input-number-of-speeds-1-43-rpm/80%Daily2018-08-16 14:52
https://www.r1.lt/dell-xps-15-9575-silver-15-6-ips-touchscreen-full-hd-1920-x-1080-pixels-matt-intel-core-i7-i7-8705g-8-gb-ddr4-ssd-512-gb-amd-radeon-rx-vega-870-4-gb-windows-10-pro-802-11ac-keyboard/80%Daily2018-08-16 14:47
https://www.r1.lt/gastroback-vital-juicer-pro-black-stainless-steel-700-w-extra-large-fruit-input-number-of-speeds-2-17000-18500-rpm/80%Daily2018-08-16 13:37
https://www.r1.lt/asus-x540la-dm1083t-nesiojamas-kompiuteris-15-6fhd-i3-5005u-4gb-128gb-intelhd-win10h-chocolate-black/80%Daily2018-08-16 13:36
https://www.r1.lt/karcher-1-673-123kar-k-2-compact-car-auksto-slegio-plovykla/80%Daily2018-08-16 13:23
https://www.r1.lt/yunmai-mini-smart-svarstykles-white/80%Daily2018-08-16 13:22
https://www.r1.lt/rubicon-rnad94gawx03bx/80%Daily2018-08-16 12:58
https://www.r1.lt/daugiafunkce-atkuriamoji-plauku-kauke-doctor-450-g/80%Daily2018-08-16 12:35
https://www.r1.lt/dell-90w-ac-adapter-4-5mm-barrel-eukit-dell/80%Daily2018-08-16 11:32
https://www.r1.lt/deepcool-dn350-80-plus-230v-350-w/80%Daily2018-08-16 11:14
https://www.r1.lt/casio-mrw-210h-1a2vef/80%Daily2018-08-16 10:44
https://www.r1.lt/inavi-7600p-masina-paspirtukas/80%Daily2018-08-16 10:43
https://www.r1.lt/pierre-cardin-pc902342f04/80%Daily2018-08-16 10:42
https://www.r1.lt/orava-kettle-vk-3817-a-with-electronic-control-stainless-steel-stainless-steel-black-2000-w-360-rotational-base-1-7-l/80%Daily2018-08-16 10:17
https://www.r1.lt/pierre-cardin-pc902332f05/80%Daily2018-08-16 09:24
https://www.r1.lt/acer-aspire-1-a114-32-black-14-hd-1366-x-768-pixels-gloss-intel-pentium-n5000-4-gb-ddr4-storage-drive-capacity-64-gb-intel-uhd-no-optical-drive-windows-10-s-802-11-ac-a-b-g-n-bluetoot/80%Daily2018-08-16 09:02
https://www.r1.lt/inavi-80611-namas-lelems-su-priedais/80%Daily2018-08-16 08:50
https://www.r1.lt/inavi-7615-masina-paspirtukas/80%Daily2018-08-16 08:38
https://www.r1.lt/orava-kitchen-scale-ev-1-b-maximum-weight-capacity-5-kg-graduation-1-g-display-type-lcd-cream/80%Daily2018-08-16 08:34
https://www.r1.lt/lenovo-gx30p98213-legion-k200-klaviatura-nor/80%Daily2018-08-16 08:30
https://www.r1.lt/orava-travel-hair-dryer-hd-402-foldable-handle-1000-w-black/80%Daily2018-08-16 08:19
https://www.r1.lt/monitorius-aoc-27v2q-27-ips-fullhd-hdmi-dp/80%Daily2018-08-16 07:19
https://www.r1.lt/delonghi-toaster-ctov-2103-bg-beigi-stainless-steel-900-w-number-of-slots-2-bun-warmer-included/80%Daily2018-08-16 07:00
https://www.r1.lt/melitta-solo-perfect-milk-coffee-maker-e957-103-pump-pressure-15-bar-built-in-milk-frother-fully-automatic-1400-w-black-silver/80%Daily2018-08-16 06:25
https://www.r1.lt/pierre-cardin-pc901862f05/80%Daily2018-08-16 04:11
https://www.r1.lt/trust-19756-eno-prot-6-deklas-elektroniniu-knygu-skaitytuvams/80%Daily2018-08-16 04:04
https://www.r1.lt/3mk-ferya-skincase-back-cover-apple-iphone-5s-protective-foil-pink-matte/80%Daily2018-08-16 03:58
https://www.r1.lt/lenovo-kb-mice-bo-300-wireless-kompiuterio-pele/80%Daily2018-08-16 03:56
https://www.r1.lt/asus-r416na-fa014t-vivobook-14fhd-n4200-4gb-128gbssd-intelhd-win10h-en-grey-metal-nesiojamas-kompiuteris/80%Daily2018-08-16 03:32
https://www.r1.lt/pierre-cardin-pc902352f04/80%Daily2018-08-16 02:40
https://www.r1.lt/gastroback-46013-vacuum-sealer-fully-automatic-or-manual-black-120-w/80%Daily2018-08-16 01:47
https://www.r1.lt/orava-thermomether-mt-320-memory-function-measurement-time-1-s-white-blue/80%Daily2018-08-16 01:23
https://www.r1.lt/mineralinis-bb-kremas-medium-40ml/80%Daily2018-08-15 23:35
https://www.r1.lt/nescafe-dolce-gusto-lungo-columbia-kava-84g/80%Daily2018-08-15 22:55
https://www.r1.lt/vandeniui-atsparus-gelinis-lupu-piestukas-truly-red/80%Daily2018-08-15 22:13
https://www.r1.lt/electrolux-eer73db-dulkiu-siurblys-sluota/80%Daily2018-08-15 21:58
https://www.r1.lt/samsung-galaxy-j5-2017-mobilus-telefonas-silver-2/80%Daily2018-08-15 21:35
https://www.r1.lt/casio-ef-321d-1avef/80%Daily2018-08-15 21:14
https://www.r1.lt/trust-20577-oila-4-port-usb-2-0-usb-sakotuvas/80%Daily2018-08-15 20:42
https://www.r1.lt/mineraliniai-lupu-dazai-la-diva-35-g/80%Daily2018-08-15 20:04
https://www.r1.lt/dell-p2219h-22-monitorius/80%Daily2018-08-15 19:59
https://www.r1.lt/juguetronica-robotron-mini-visual-block-programuojamas-robotas/80%Daily2018-08-15 19:21
https://www.r1.lt/lenovo-gx30k69570-yoga-pele-orange/80%Daily2018-08-15 18:04
https://www.r1.lt/lenovo-essential-v330-14ikb-iron-gray-14-full-hd-1920-x-1080-pixels-intel-core-i5-i5-8250u-8-gb-ddr4-ssd-256-gb-intel-uhd-dos-802-11-ac-bluetooth-version-4-1-keyboard-language-nordic/80%Daily2018-08-15 17:57
https://www.r1.lt/external-hdd-adata-classic-hv300-2-5inch-2tb-usb3-1-4/80%Daily2018-08-15 17:54
https://www.r1.lt/trevi-mb-746-w-radijo-imtuvas-multi-band-ac-dc-black/80%Daily2018-08-15 17:43
https://www.r1.lt/pierre-cardin-pc902361f04/80%Daily2018-08-15 17:15
https://www.r1.lt/aeg-l9fea69s-skalbimo-masina/80%Daily2018-08-15 16:51
https://www.r1.lt/juguetronica-laikrodis/80%Daily2018-08-15 16:22
https://www.r1.lt/set-avtek-tt-board-90-pro-vivitek-dw282-st-avtek-wallmount-next-1200-akc/80%Daily2018-08-15 15:37
https://www.r1.lt/xiaomi-mi-mix-2s-mobilus-telefonas-64gb-dual-sim-black/80%Daily2018-08-15 14:47
https://www.r1.lt/miele-wce330-wcs-skalbimo-masina/80%Daily2018-08-15 14:27
https://www.r1.lt/inavi-218a-zaisline-karieta-su-lele/80%Daily2018-08-15 13:51
https://www.r1.lt/acme-vr301-uhd-veiksmo-kamera/80%Daily2018-08-15 13:45
https://www.r1.lt/electrolux-eus8green-dulkiu-siurblys/80%Daily2018-08-15 13:28
https://www.r1.lt/pierre-cardin-pc107592f07/80%Daily2018-08-15 13:26
https://www.r1.lt/pierre-cardin-pc902352f04u/80%Daily2018-08-15 13:07
https://www.r1.lt/juguetronica-lizard-robotas-driezas/80%Daily2018-08-15 12:44
https://www.r1.lt/antakiu-palete/80%Daily2018-08-14 21:39
https://www.r1.lt/mineraline-pudra-cinnamon-9-g/80%Daily2018-08-14 11:52
https://www.r1.lt/zerinti-palete-veidui/80%Daily2018-08-14 09:12
https://www.r1.lt/mineraliniai-lupu-dazai-envy-35-g/80%Daily2018-08-14 02:38
https://www.r1.lt/birus-mineralinis-bronzantas-pure-element-4-g/80%Daily2018-08-13 00:41
https://www.r1.lt/mineralinis-skruostu-ir-lupu-gelis-dazai-pink-5-g/80%Daily2018-08-13 00:02
https://www.r1.lt/sweet-relax-giliai-drekinantis-tiesinantis-sampunas-500-ml/80%Daily2018-08-11 04:57
https://www.r1.lt/gorenje-microwave-oven-mmo20dbii-20-l-grill-electronic-800-w-black-free-standing-defrost-function/80%Daily2018-08-11 04:54
https://www.r1.lt/invati-men-maitinantis-valomasis-sampunas-vyrams-250-ml/80%Daily2018-08-11 04:24
https://www.r1.lt/color-preserve-kondicionieirus-ploniems-plaukams-ph-3-8-4-2-250-ml/80%Daily2018-08-11 04:19
https://www.r1.lt/fischertechnik-bt-racing-set-konstruktorius/80%Daily2018-08-11 02:51
https://www.r1.lt/fly-vol-purumo-ir-blizgesio-suteikiantis-purskiamas-tonikas-200-ml/80%Daily2018-08-11 02:04
https://www.r1.lt/external-hdd-g-drive-thunderbolt-3-3-5-4tb-usb-3-1-silver/80%Daily2018-08-11 00:37
https://www.r1.lt/tonikas-nuo-plauku-slinkimo-125-ml/80%Daily2018-08-11 00:05
https://www.r1.lt/solar-superfood-saules-linijos-balzamas-po-saules-250-ml/80%Daily2018-08-10 22:54
https://www.r1.lt/comfort-jautria-galvos-oda-raminantis-ir-drekinantis-sampunas-500-ml/80%Daily2018-08-10 22:46
https://www.r1.lt/universalus-skaidymo-sepetelis/80%Daily2018-08-10 20:20
https://www.r1.lt/aeg-ups-protect-alpha-450-450-va-240-w-280-v/80%Daily2018-08-10 19:19
https://www.r1.lt/stiprios-fiksacijos-matinis-plauku-modeliavimo-molis-100-ml/80%Daily2018-08-10 19:13
https://www.r1.lt/gorenje-wall-mounted-hood-dvg800ax-electronic-width-80-cm-630-m%c2%b3-h-stainless-steel-black-glass-energy-efficiency-class-d-49-db-chimney/80%Daily2018-08-10 18:21
https://www.r1.lt/aura-botanica-eau-de-vagues-teksturos-suteikiantis-purskiklis-150-ml/80%Daily2018-08-10 17:39
https://www.r1.lt/energizing-energizuojantis-galvos-odos-losjonas-125-ml/80%Daily2018-08-10 17:38
https://www.r1.lt/external-hdd-g-drive-usb-c-3-5-8tb-usb-3-1-silver/80%Daily2018-08-10 16:52
https://www.r1.lt/brother-tn-241y-toner-cartridge-yellow/80%Daily2018-08-10 16:47
https://www.r1.lt/specifique-masque-hydra-apaisant-atkuriamoji-geline-plauku-kauke-200ml/80%Daily2018-08-10 16:23
https://www.r1.lt/fischertechnik-robo-pro-software-konstruktorius/80%Daily2018-08-10 15:37
https://www.r1.lt/miele-cm-6150-kavos-aparatas-juodas/80%Daily2018-08-10 15:09
https://www.r1.lt/artisan-brillina-briliantino-efekto-zvilgesio-vaskas-100-ml/80%Daily2018-08-10 15:09
https://www.r1.lt/color-preserve-sampunas-storiems-plaukams-ph-5-0-5-5-300-ml/80%Daily2018-08-10 14:54
https://www.r1.lt/nutritive-bain-oleo-relax-glotninamasis-sampunas-250ml/80%Daily2018-08-10 13:06
https://www.r1.lt/alpine-ute-200bt-automobilinis-grotuvas-su-bluetooth-usb-mp3/80%Daily2018-08-10 12:20
https://www.r1.lt/external-hdd-g-drive-ev-raw-2-5-1tb-usb-3-0-black/80%Daily2018-08-10 12:00
https://www.r1.lt/electrolux-estm9600-plaktuvas/80%Daily2018-08-10 11:47
https://www.r1.lt/bosch-oven-hba533bb0s-built-in-71-l-black-eco-clean-a-push-pull-buttons-height-60-cm-width-60-cm-integrated-timer-electric/80%Daily2018-08-10 10:31
https://www.r1.lt/curl-frizz-sampunas-banguotiems-ir-garbanotiems-plaukams-500-ml/80%Daily2018-08-10 10:02
https://www.r1.lt/external-hdd-g-drive-thunderbolt-3-3-5-12tb-usb-3-1-silver/80%Daily2018-08-10 09:45
https://www.r1.lt/bfree-starlight-blonde-sampunas-sviesiems-plaukams-250-ml/80%Daily2018-08-10 09:37
https://www.r1.lt/external-hdd-g-drive-mobile-ssd-2-5-500gb-usb-3-1-gray/80%Daily2018-08-10 09:27
https://www.r1.lt/brother-tn-241m-toner-cartridge-magenta/80%Daily2018-08-10 08:48
https://www.r1.lt/ariete-a630-ledu-gaminimo-aparatas/80%Daily2018-08-10 08:09
https://www.r1.lt/external-hdd-g-drive-mobile-usb-c-2-5-2tb-usb-3-1-gray/80%Daily2018-08-10 07:48
https://www.r1.lt/fischertechnik-racers-konstruktorius/80%Daily2018-08-10 07:13
https://www.r1.lt/bfree-starlight-blonde-kondicionierius-sviesiems-plaukams-250-ml/80%Daily2018-08-10 05:26
https://www.r1.lt/xerox-b1025v_b-a3-mf-mono-office-digital-equip-p1524-4623/80%Daily2018-08-10 04:13
https://www.r1.lt/samsung-vs80n8076kc-sb-dulkiu-siurblys-sluota/80%Daily2018-08-10 03:37
https://www.r1.lt/copper-spalvos-palaikymo-kondicioneirius-30-ml/80%Daily2018-08-10 03:18
https://www.r1.lt/gorenje-microwave-oven-mo17de-17-l-electronic-700-w-stainless-steel-free-standing-defrost-function/80%Daily2018-08-10 02:47
https://www.r1.lt/purple-red-spalvos-palaikymo-kondicionierius-30-ml/80%Daily2018-08-10 02:38
https://www.r1.lt/barzdos-balzamas-refreshing-100-ml/80%Daily2018-08-10 02:12
https://www.r1.lt/bfree-starlight-blonde-dvifazis-nenuskalaujamas-kondicionierius-200-ml/80%Daily2018-08-10 01:36
https://www.r1.lt/fischertechnik-universal-3-konstruktorius/80%Daily2018-08-10 01:19
https://www.r1.lt/mineraliniai-lupu-dazai-burlesque-35-g/80%Daily2018-08-09 22:33
https://www.r1.lt/mahogany-spalvos-palaikymo-kondicionierius-250-ml/80%Daily2018-08-09 22:26
https://www.r1.lt/curl-frizz-kauke-banguotiems-ir-garbanotiems-plaukams-250-ml/80%Daily2018-08-09 22:24
https://www.r1.lt/energizing-intensyvus-energizuojantis-galvos-odos-losjonas-100-ml/80%Daily2018-08-09 19:15
https://www.r1.lt/mineraline-pudra-ivory-9-g/80%Daily2018-08-09 18:34
https://www.r1.lt/mineralinis-lupu-kremas-kiss-proof-incognito-3-8-ml/80%Daily2018-08-09 18:21
https://www.r1.lt/leniderm-raminamasis-sampunas-500-ml/80%Daily2018-08-09 17:53
https://www.r1.lt/chronologiste-le-parfum-en-huile-kvapnusis-plauku-aliejus-120ml/80%Daily2018-08-09 17:46
https://www.r1.lt/external-hdd-g-drive-usb-3-5-6tb-usb-3-0-silver-2/80%Daily2018-08-09 15:02
https://www.r1.lt/external-hdd-g-raid-removable-thunderbolt-3-3-5-12tb-usb-3-1-silver/80%Daily2018-08-09 14:10
https://www.r1.lt/leniderm-raminamasis-losjonas-galvos-odai-125-ml/80%Daily2018-08-09 10:25
https://www.r1.lt/platinum-blonde-spalvos-palaikymo-kondicionierius-250-ml/80%Daily2018-08-09 06:16
https://www.r1.lt/mahogany-spalvos-palaikymo-kondicionierius-30-ml/80%Daily2018-08-09 05:48
https://www.r1.lt/fischertechnik-robo-tx-electropneumatic-konstruktorius/80%Daily2018-08-09 03:25
https://www.r1.lt/philips-243v5lhsb-00-23-6-tft-lcd-full-hd-1920-x-1080-pixels-169-1-ms-250-cd-m%c2%b2-black/80%Daily2018-08-09 02:30
https://www.r1.lt/fischertechnik-accu-set-konstruktorius/80%Daily2018-08-09 02:15
https://www.r1.lt/nutritive-bain-satin-1-maitinamasis-sampunas-250ml/80%Daily2018-08-09 00:34
https://www.r1.lt/bfree-starlight-blonde-lengvas-neriebus-serumas-100-ml/80%Daily2018-08-08 23:53
https://www.r1.lt/energizing-energizuojantis-losjonas-jautriai-galvos-odai-ampulese-12x7-ml/80%Daily2018-08-08 23:19
https://www.r1.lt/external-hdd-g-drive-mobile-ssd-2-5-1tb-usb-3-1-gray/80%Daily2018-08-08 22:26
https://www.r1.lt/mineraliniai-lupu-dazai-catwalk-35-g/80%Daily2018-08-08 21:52
https://www.r1.lt/gorenje-multifunctional-oven-bo637e21wg-65-l-white-aquaclean-a-push-pull-height-60-cm-width-60-cm-electric/80%Daily2018-08-08 20:22
https://www.r1.lt/elysee-heritage-chrono-11010/80%Daily2018-08-08 19:31
https://www.r1.lt/elixir-ultime-oleo-complexe-sampunas-su-aliejais-1000-ml/80%Daily2018-08-08 17:28
https://www.r1.lt/copper-spalvos-palaikymo-kondicioneirius-250-ml/80%Daily2018-08-08 15:47
https://www.r1.lt/fischertechnik-solar-konstruktorius/80%Daily2018-08-08 14:56
https://www.r1.lt/g-speed-shuttle-thunderbolt-3-ev-series-bay-adapters-20tb-black/80%Daily2018-08-08 14:33
https://www.r1.lt/artisan-puff-apimties-suteikiancios-putos-250-ml/80%Daily2018-08-08 12:05
https://www.r1.lt/fischertechnik-dynamic-trampoline-konstruktorius/80%Daily2018-08-08 12:00
https://www.r1.lt/repair-atkuriamasis-sampunas-500-ml/80%Daily2018-08-08 11:07
https://www.r1.lt/color-preserve-kauke-storiems-plaukams-ph-4-0-4-5-250-ml/80%Daily2018-08-08 10:20
https://www.r1.lt/birus-mineralinis-bronzantas-peony-4-g/80%Daily2018-08-08 09:55
https://www.r1.lt/gorenje-built-in-hood-dkf-2600mwt-electronic-width-60-cm-305-m%c2%b3-h-stainless-steel-white-glass-energy-efficiency-class-d-49-db-telescopic/80%Daily2018-08-08 07:38
https://www.r1.lt/external-hdd-g-drive-mobile-usb-c-2-5-1tb-usb-3-1-gray/80%Daily2018-08-08 07:11
https://www.r1.lt/gorenje-built-in-hood-dkf-2600mst-electronic-width-60-cm-305-m%c2%b3-h-stainless-steel-black-glass-energy-efficiency-class-d-49-db-telescopic/80%Daily2018-08-08 06:39
https://www.r1.lt/fischertechnik-pneumatic-power-konstruktorius/80%Daily2018-08-08 05:49
https://www.r1.lt/remedy-paruosiamasis-galvos-odos-sveitiklis-150-ml/80%Daily2018-08-08 05:38
https://www.r1.lt/solar-superfood-saules-linijos-kauke-ph-2-5-3-5-150-ml/80%Daily2018-08-08 05:24
https://www.r1.lt/kompaktine-mineraline-pudra-ivory-10-g/80%Daily2018-08-08 05:00
https://www.r1.lt/bosch-oven-hba537bw0s-built-in-71-l-white-eco-clean-a-push-pull-buttons-height-60-cm-width-60-cm-integrated-timer-electric/80%Daily2018-08-08 04:40
https://www.r1.lt/pirstine-savaiminiam-idegiui-applicator-mitt-1-vnt/80%Daily2018-08-08 04:26
https://www.r1.lt/purple-red-spalvos-palaikymo-kondicionierius-250-ml/80%Daily2018-08-08 03:51
https://www.r1.lt/external-hdd-adata-hv620-2tb-white-superspeed-usb-3-1/80%Daily2018-08-08 02:51
https://www.r1.lt/gorenje-microwave-oven-mmo20mgwii-20-l-grill-electronic-800-w-black-free-standing-defrost-function/80%Daily2018-08-08 01:42
https://www.r1.lt/allview-x4-soul-infinity-z-black-5-7-ips-lcd-720-x-1440-pixels-cortex-a53-internal-ram-4-gb-32-gb-microsd-dual-sim-microsim-nanosim-3g-4g-main-camera-dual-135-mp-secondary-camera-8-mp/80%Daily2018-08-08 01:21
https://www.r1.lt/skutimosi-muilas-su-alijosiumi-porcelianiniame-indelyje-65-g/80%Daily2018-08-08 00:22
https://www.r1.lt/energizing-energizuojantis-galvos-odos-losjonas-ampulese-12x7-ml/80%Daily2018-08-07 23:48
https://www.r1.lt/caramel-spalvos-palaikymo-kondicionierius-30-ml/80%Daily2018-08-07 22:43
https://www.r1.lt/xerox-b1025v_u-a3-mf-mono-office-digital-equip-p1524-4623/80%Daily2018-08-07 22:28
https://www.r1.lt/invati-advanced-valomasis-sampunas-slenkantiems-plaukams-200-ml/80%Daily2018-08-07 21:39
https://www.r1.lt/lemongrass-limes-vegetable-soap-augalinis-muilas-190g/80%Daily2018-08-07 21:30
https://www.r1.lt/balzamas-po-skutimosi-125ml/80%Daily2018-08-07 21:23
https://www.r1.lt/external-hdd-g-drive-thunderbolt-3-3-5-8tb-usb-3-1-silver/80%Daily2018-08-07 20:35
https://www.r1.lt/artisan-cera-lacca-stiprios-fiksacijos-lakas-su-atminties-efektu-500-ml/80%Daily2018-08-07 20:24
https://www.r1.lt/resistance-bain-therapiste-sampunas-itin-pazeistiems-plaukams-250ml/80%Daily2018-08-07 19:55
https://www.r1.lt/gorenje-built-in-hood-dkf-2600ms-mechanical-width-60-cm-305-m%c2%b3-h-stainless-steel-black-glass-energy-efficiency-class-d-49-db-telescopic/80%Daily2018-08-07 19:26
https://www.r1.lt/caramel-spalvos-palaikymo-kondicionierius-250-ml/80%Daily2018-08-07 18:35
https://www.r1.lt/external-hdd-g-drive-ev-raw-2-5-2tb-usb-3-0-black/80%Daily2018-08-07 18:31
https://www.r1.lt/xerox-b1022v_b-a3-mf-mono-office-digital-equip-p1524-4623/80%Daily2018-08-07 17:59
https://www.r1.lt/purifying-valomasis-sampunas-nuo-pleiskanu-500-ml/80%Daily2018-08-07 16:10
https://www.r1.lt/color-conserve-sampunas-dazytiems-plaukams-250-ml/80%Daily2018-08-07 16:01
https://www.r1.lt/external-hdd-g-drive-mobile-usb-c-2-5-1tb-usb-3-1-silver/80%Daily2018-08-07 15:28
https://www.r1.lt/electrolux-esb5830-kokteiline/80%Daily2018-08-07 13:57
https://www.r1.lt/reflection-bain-chromatique-daugiafunkcis-sampunas-dazytiems-plaukams-250ml/80%Daily2018-08-07 13:39
https://www.r1.lt/fischertechnik-trucks-konstruktorius/80%Daily2018-08-07 12:43
https://www.r1.lt/platinum-blonde-spalvos-palaikymo-kondicionierius-30-ml/80%Daily2018-08-07 11:54
https://www.r1.lt/fischertechnik-dynamic-l-2-konstruktorius/80%Daily2018-08-07 11:41
https://www.r1.lt/bosch-oven-hba533bw0s-built-in-71-l-white-eco-clean-a-push-pull-buttons-height-60-cm-width-60-cm-integrated-timer-electric/80%Daily2018-08-07 11:01
https://www.r1.lt/artisan-geghe-gel-stiprios-fiksacijos-spindesio-gelis-150-ml/80%Daily2018-08-07 10:43
https://www.r1.lt/artisan-pongo-matine-plauku-formavimo-pasta-100-ml/80%Daily2018-08-07 10:38
https://www.r1.lt/sweet-relax-giliai-drekinantis-tiesinantis-fluidas-100-ml/80%Daily2018-08-07 09:53
https://www.r1.lt/artisan-lucilla-zvilgesio-suteikiantis-purskalas-su-apsauga-nuo-karscio-150-ml/80%Daily2018-08-07 08:30
https://www.r1.lt/milk-sublime-kauke-sausiems-ir-pazeistiems-plaukams-250-ml/80%Daily2018-08-07 08:25
https://www.r1.lt/external-hdd-g-drive-thunderbolt-3-5-10tb-usb-3-0-silver/80%Daily2018-08-07 08:24
https://www.r1.lt/fischertechnik-solar-power-konstruktorius/80%Daily2018-08-07 08:11
https://www.r1.lt/asus-gaming-monitor-vg258q-25-5-tn-fhd-1920-x-1080-pixels-169-1-ms-400-cd-m%c2%b2-black/80%Daily2018-08-07 07:50
https://www.r1.lt/bosch-dfs067e51-gartraukis-2/80%Daily2018-08-07 07:09
https://www.r1.lt/artisan-oil-lala-garbanu-modeliavimo-fluidas-250-ml/80%Daily2018-08-07 06:59
https://www.r1.lt/skutimosi-muilas-su-santalu-porcelianiniame-indelyje-65-g/80%Daily2018-08-07 05:35
https://www.r1.lt/external-hdd-g-drive-mobile-2-5-1tb-usb-3-0-silver/80%Daily2018-08-07 05:33
https://www.r1.lt/tristar-wg2421-svarstykles/80%Daily2018-08-07 04:01
https://www.r1.lt/external-hdd-g-raid-removable-thunderbolt-3-3-5-20tb-usb-3-1-silver/80%Daily2018-08-07 04:00
https://www.r1.lt/fischertechnik-electronics-konstruktorius/80%Daily2018-08-07 03:41
https://www.r1.lt/repair-filler-uzpildancioji-plauku-kauke-300-ml/80%Daily2018-08-07 02:52
https://www.r1.lt/curl-frizz-besisiausianciu-plauku-suvaldymo-fluidas-100-ml/80%Daily2018-08-07 02:00
https://www.r1.lt/repair-damage-stipri-atkuriamoji-plauku-kauke-300-ml/80%Daily2018-08-07 01:26
https://www.r1.lt/external-hdd-g-raid-removable-thunderbolt-3-3-5-16tb-usb-3-1-silver/80%Daily2018-08-07 01:07
https://www.r1.lt/fischertechnik-dynamic-m-konstruktorius/80%Daily2018-08-07 01:02
https://www.r1.lt/wenger-attitude-chrono-01-1543-104/80%Daily2018-08-07 00:36
https://www.r1.lt/artisan-lallaca-ekologiskas-stiprios-fiksacijos-apimties-suteikiantis-lakas-250-ml/80%Daily2018-08-07 00:35
https://www.r1.lt/hair-vitamins-for-women-plauku-augima-skatinantys-vitaminai-moterims-60-guminuku/80%Daily2018-08-07 00:31
https://www.r1.lt/bosch-oven-hba530bb0s-built-in-71-l-black-eco-clean-a-push-pull-buttons-height-60-cm-width-60-cm-integrated-timer-electric/80%Daily2018-08-07 00:10
https://www.r1.lt/kuvings-evo820gm-ns1226cec-letaeige-sulciaspaude/80%Daily2018-08-06 23:20
https://www.r1.lt/external-hdd-g-drive-ev-raw-ssd-2-5-500gb-usb-3-0-black/80%Daily2018-08-06 22:51
https://www.r1.lt/stadler-form-the-swinging-tower-fan-peter-p013-stand-fan-number-of-speeds-3-36-60-w-remote-control-oscillation-diameter-13-5-cm-black/80%Daily2018-08-06 22:10
https://www.r1.lt/wenger-attitude-seaforce-01-0641-125/80%Daily2018-08-06 21:00
https://www.r1.lt/specifique-bain-riche-dermo-calm-raminantis-sampunas-250ml/80%Daily2018-08-06 20:57
https://www.r1.lt/zy338fd-zyle-vaisiu-dziovintuvas/80%Daily2018-08-06 20:49
https://www.r1.lt/elysee-heritage-chrono-11013/80%Daily2018-08-06 20:06
https://www.r1.lt/jbl-clip3-nesiojamas-bluetooth-garsiakalbis-black/80%Daily2018-08-06 19:49
https://www.r1.lt/external-hdd-g-drive-mobile-usb-c-2-5-2tb-usb-3-1-silver/80%Daily2018-08-06 19:19
https://www.r1.lt/chronologiste-le-bain-revitalisant-gaivinantis-sampunas-250-ml/80%Daily2018-08-06 18:28
https://www.r1.lt/se5511-braun-epiliatorius-white-turque/80%Daily2018-08-06 18:24
https://www.r1.lt/daewoo-rgj-230r-2a-dulkiu-siurblys/80%Daily2018-08-06 17:46
https://www.r1.lt/wenger-attitude-seaforce-01-0641-126/80%Daily2018-08-06 17:35
https://www.r1.lt/beurer-ls06-bagazo-svarstykles/80%Daily2018-08-06 17:02
https://www.r1.lt/comfort-kondicionierius-jautriai-galvos-odai-250-ml/80%Daily2018-08-06 16:26
https://www.r1.lt/elysee-priamos-77022/80%Daily2018-08-06 14:13
https://www.r1.lt/losjonas-po-skutimosi-1959-100-ml/80%Daily2018-08-06 12:56
https://www.r1.lt/jordan-kerr-pw747-ips-white/80%Daily2018-08-06 12:09
https://www.r1.lt/wenger-attitude-chrono-01-1543-108/80%Daily2018-08-06 12:01
https://www.r1.lt/nutritive-bain-satin-2-maitinamasis-sampunas-250ml/80%Daily2018-08-06 11:28
https://www.r1.lt/wenger-city-classic-01-1441-124/80%Daily2018-08-06 11:15
https://www.r1.lt/external-hdd-g-raid-removable-thunderbolt-3-3-5-24tb-usb-3-1-silver/80%Daily2018-08-06 10:54
https://www.r1.lt/t10-microlab-garso-koloneles-2-1-56-w-rms/80%Daily2018-08-06 10:36
https://www.r1.lt/artisan-riccioletto-formavimo-kremas-garbanotiems-ir-banguotiems-plaukams-200-ml/80%Daily2018-08-06 09:37
https://www.r1.lt/energizing-energizuojantis-sampunas-500-ml/80%Daily2018-08-06 08:38
https://www.r1.lt/miele-scout-rx2-dulkiu-siurblys-robotas-autumn-red/80%Daily2018-08-06 08:25
https://www.r1.lt/artisan-cementina-teksturos-ir-apimties-suteikiantis-lakas-250-ml/80%Daily2018-08-06 08:24
https://www.r1.lt/svelnus-losjonas-po-skutimosi-150-ml/80%Daily2018-08-06 08:21
https://www.r1.lt/fischertechnik-dynamic-s-konstruktorius/80%Daily2018-08-06 08:03
https://www.r1.lt/shusu-sleek-glotninamasis-sampunas-nepaklusniems-plaukams-300-ml/80%Daily2018-08-06 07:59
https://www.r1.lt/light-beige-spalvos-palaikymo-kondicionierius-30-ml/80%Daily2018-08-06 07:14
https://www.r1.lt/eta-fresa-food-dryer-eta530190000-black-stainless-steel-245-w-number-of-trays-5-temperature-control/80%Daily2018-08-06 07:13
https://www.r1.lt/nutritive-nectar-thermique-maitinamasis-pienelis-150ml/80%Daily2018-08-06 06:35
https://www.r1.lt/wenger-roadster-black-night-chrono-01-1841-102/80%Daily2018-08-06 05:01
https://www.r1.lt/sweet-relax-giliai-drekinanti-tiesinanti-kauke-250-ml/80%Daily2018-08-06 04:59
https://www.r1.lt/bosch-oven-hba537bs0s-built-in-71-l-black-stainless-steel-eco-clean-a-push-pull-buttons-height-60-cm-width-60-cm-integrated-timer-electric/80%Daily2018-08-06 04:57
https://www.r1.lt/fischertechnik-txt-controller-konstruktorius/80%Daily2018-08-06 04:12
https://www.r1.lt/re-balance-sampunas-riebiai-galvos-odai-500-ml/80%Daily2018-08-06 04:04
https://www.r1.lt/set-avtek-tt-board-90-pro-viewsonic-p501w-avtek-wallmount-next-1200-akc/80%Daily2018-08-06 03:57
https://www.r1.lt/jordan-kerr-l113-iprg-blue/80%Daily2018-08-06 03:52
https://www.r1.lt/g-speed-shuttle-thunderbolt-3-ev-series-bay-adapters-24tb-black/80%Daily2018-08-06 03:40
https://www.r1.lt/milk-sublime-drekinantis-ir-maitinantis-zvilgesio-fluidas-100-ml/80%Daily2018-08-06 03:25
https://www.r1.lt/artisan-voluttuosa-nuo-dregmes-saugantis-apimties-suteikiantis-lakas-500-ml/80%Daily2018-08-06 02:37
https://www.r1.lt/fischertechnik-robo-tx-automation-robots-konstruktorius/80%Daily2018-08-06 02:28
https://www.r1.lt/elysee-minos-83826/80%Daily2018-08-06 02:20
https://www.r1.lt/external-hdd-g-drive-mobile-2-5-4tb-usb-3-0-silver/80%Daily2018-08-06 02:12
https://www.r1.lt/fischertechnik-tractors-konstruktorius/80%Daily2018-08-06 02:09
https://www.r1.lt/gorenje-ect641bsc-elektrine-kaitlente/80%Daily2018-08-06 01:05
https://www.r1.lt/eta-vital-air-eta030290000-white-630-w-number-of-trays-9-temperature-control-integrated-timer/80%Daily2018-08-06 00:48
https://www.r1.lt/wenger-attitude-seaforce-01-0641-128/80%Daily2018-08-06 00:25
https://www.r1.lt/bosch-oven-hba537bb0s-built-in-71-l-black-eco-clean-a-push-pull-buttons-height-60-cm-width-60-cm-integrated-timer-electric/80%Daily2018-08-06 00:20
https://www.r1.lt/external-hdd-g-drive-thunderbolt-3-3-5-6tb-usb-3-1-silver/80%Daily2018-08-06 00:09
https://www.r1.lt/lenovo-legion-y530-15ich-15-6fhd-i5-8300h-8gb-1tb128ssd-gtx1050-w10h-en-nesiojamas-kompiuteris/80%Daily2018-08-05 23:39
https://www.r1.lt/jordan-kerr-l113-iprg-grey/80%Daily2018-08-05 23:34
https://www.r1.lt/fischertechnik-dynamic-xm-konstruktorius/80%Daily2018-08-05 23:07
https://www.r1.lt/nutritive-bain-magistral-intensyviai-maitinantis-sampunas-250ml/80%Daily2018-08-05 22:45
https://www.r1.lt/external-hdd-g-drive-usb-3-5-8tb-usb-3-0-silver/80%Daily2018-08-05 22:41
https://www.r1.lt/artisan-spumiglia-elastingumo-suteikiancios-plauku-putos-250-ml/80%Daily2018-08-05 20:07
https://www.r1.lt/external-hdd-g-drive-ev-atc-2-5-1tb-usb-3-0-black/80%Daily2018-08-05 19:31
https://www.r1.lt/purifying-clay-mud-valomasis-dumblas-su-moliu-nuo-pleiskanu-150-ml/80%Daily2018-08-05 18:05
https://www.r1.lt/external-hdd-g-drive-thunderbolt-3-5-8tb-usb-3-0-silver/80%Daily2018-08-05 17:23
https://www.r1.lt/fischertechnik-cars-drives-konstruktorius/80%Daily2018-08-05 17:22
https://www.r1.lt/artisan-top-gum-lengvos-fiksacijos-plauku-formavimo-guma-100-ml/80%Daily2018-08-05 17:04
https://www.r1.lt/prestigio-gqpcdvrr527dl-roadrunner-527-video-registratorius/80%Daily2018-08-05 16:46
https://www.r1.lt/resistance-bain-force-architecte-stiprinantis-sampunas-250ml/80%Daily2018-08-05 16:16
https://www.r1.lt/prestigio-muze-d5-lte-mobilus-telefonas-silver/80%Daily2018-08-05 15:39
https://www.r1.lt/external-hdd-g-drive-usb-3-5-6tb-usb-3-0-silver/80%Daily2018-08-05 15:22
https://www.r1.lt/fischertechnik-mechanic-static-2-konstruktorius/80%Daily2018-08-05 15:17
https://www.r1.lt/milk-sublime-sampunas-sausiems-ir-pazeistiems-plaukams-500-ml/80%Daily2018-08-05 15:02
https://www.r1.lt/fischertechnik-mini-bots-konstruktorius/80%Daily2018-08-05 14:25
https://www.r1.lt/fischertechnik-bt-smart-beginner-set-konstruktorius/80%Daily2018-08-05 13:48
https://www.r1.lt/smooth-glotninantis-sampunas-250ml/80%Daily2018-08-05 13:26
https://www.r1.lt/electrolux-pd91-8ssm-dulkiu-siurblys/80%Daily2018-08-05 12:48
https://www.r1.lt/artisan-hair-in-the-wind-apimties-ir-teksturos-suteikiantis-plauku-purskalas-200-ml/80%Daily2018-08-05 11:44
https://www.r1.lt/mesko-food-dryer-ms-6657-white-350-w-number-of-trays-5-temperature-control/80%Daily2018-08-05 11:18
https://www.r1.lt/aura-botanica-essence-declat-dvifazis-drekinamasis-aliejus-plaukams-100ml/80%Daily2018-08-05 11:06
https://www.r1.lt/graef-sks-100-pjaustykle-white/80%Daily2018-08-05 09:44
https://www.r1.lt/densifique-bain-densite-homme-tankumo-suteikiantis-sampunas-250ml/80%Daily2018-08-05 09:42
https://www.r1.lt/wenger-city-classic-01-1441-123/80%Daily2018-08-05 09:38
https://www.r1.lt/chestnut-spalvos-palaikymo-kondicionierius-250-ml/80%Daily2018-08-05 08:52
https://www.r1.lt/external-hdd-g-raid-removable-thunderbolt-3-3-5-8tb-usb-3-1-silver/80%Daily2018-08-05 08:52
https://www.r1.lt/fly-vol-purumo-ir-apimties-suteikiantis-sampunas-500-ml/80%Daily2018-08-05 08:38
https://www.r1.lt/hotpoint-hfc-3c26-indaplove/80%Daily2018-08-05 08:06
https://www.r1.lt/external-hdd-g-drive-usb-c-3-5-10tb-usb-3-1-silver/80%Daily2018-08-05 07:40
https://www.r1.lt/wenger-roadster-black-night-chrono-01-1843-102/80%Daily2018-08-05 06:29
https://www.r1.lt/keycraft-nv274-triceratops-dinozauro-kiausinis-large/80%Daily2018-08-05 05:31
https://www.r1.lt/specifique-bain-prevention-sampunas-slenkantiems-plaukams-250ml/80%Daily2018-08-05 03:54
https://www.r1.lt/discipline-bain-fluidealiste-sampunas-250ml/80%Daily2018-08-05 03:53
https://www.r1.lt/wenger-roadster-black-night-chrono-01-1843-101/80%Daily2018-08-05 03:48
https://www.r1.lt/casio-ltp-1234l-1aef/80%Daily2018-08-05 03:06
https://www.r1.lt/color-preserve-sampunas-ploniems-plaukams-ph-5-0-5-5-300-ml/80%Daily2018-08-05 02:33
https://www.r1.lt/light-beige-spalvos-palaikymo-kondicionierius-250-ml/80%Daily2018-08-05 01:57
https://www.r1.lt/davidoff-espresso-kavos-pupeles-500gr/80%Daily2018-08-05 01:26
https://www.r1.lt/microwave-oven-daewoo-kor6s4dbi-20l-800w-electronic-steel-front/80%Daily2018-08-05 01:09
https://www.r1.lt/microwave-oven-daewoo-kor6620tw-20l-700w-mechanical-white/80%Daily2018-08-05 00:45
https://www.r1.lt/fischertechnik-dynamic-xs-konstruktorius/80%Daily2018-08-05 00:18
https://www.r1.lt/logitech-c920-black-up-to-1920-x-1080-pixels-pixels-720p-1080p-usb-2-0-usb-port/80%Daily2018-08-04 23:49
https://www.r1.lt/external-hdd-g-drive-thunderbolt-3-3-5-10tb-usb-3-1-silver/80%Daily2018-08-04 21:34
https://www.r1.lt/repair-atkuriamasis-tekstura-grazinantis-purskalas-195-ml/80%Daily2018-08-04 20:58
https://www.r1.lt/fischertechnik-pneumatic-3-konstruktorius/80%Daily2018-08-04 19:32
https://www.r1.lt/external-hdd-g-drive-usb-3-5-10tb-usb-3-0-silver/80%Daily2018-08-04 19:23
https://www.r1.lt/artisan-gel-ginfix-vidutines-fiksacijos-plauku-gelis-150-ml/80%Daily2018-08-04 19:07
https://www.r1.lt/kaitlente-aeg-ikb64431xb/80%Daily2018-08-04 18:49
https://www.r1.lt/bosch-oven-hba530bw0s-built-in-71-l-white-eco-clean-a-push-pull-buttons-height-60-cm-width-60-cm-integrated-timer-electric/80%Daily2018-08-04 18:49
https://www.r1.lt/acme-ps303-bluetooth-kolonele/80%Daily2018-08-04 17:46
https://www.r1.lt/acme-vr302-4k-veiksmo-kamera/80%Daily2018-08-04 16:57
https://www.r1.lt/gartraukis-franke-inca-lux-fbi-537-xs-led1-305-0518-705/80%Daily2018-08-04 16:50
https://www.r1.lt/canyon-bluetooth-garsiakalbis/80%Daily2018-08-04 16:50
https://www.r1.lt/fischertechnik-universal-starter-konstruktorius/80%Daily2018-08-04 15:26
https://www.r1.lt/artisan-lisciolina-aksominio-svelnumo-kremas-200-ml/80%Daily2018-08-04 13:18
https://www.r1.lt/solar-superfood-saules-linijos-sampunas-ph-4-5-5-5-250-ml/80%Daily2018-08-04 12:59
https://www.r1.lt/adata-gammix-s10-256-gb-ssd-interface-m-2-write-speed-820-mb-s-read-speed-1370-mb-s/80%Daily2018-08-04 12:34
https://www.r1.lt/invati-advanced-valomasis-sampunas-slenkantiems-plaukams-50-ml/80%Daily2018-08-04 12:04
https://www.r1.lt/adler-toaster-ad-33-white-plastic-750-w-number-of-slots-2-bun-warmer-included/80%Daily2018-08-04 11:34
https://www.r1.lt/elysee-heritage-chrono-11012/80%Daily2018-08-04 11:02
https://www.r1.lt/gorenje-hob-g640mb-gas-number-of-burners-cooking-zones-4-black/80%Daily2018-08-04 11:01
https://www.r1.lt/wenger-urban-classic-pvd-01-1021-108/80%Daily2018-08-04 10:58
https://www.r1.lt/chestnut-spalvos-palaikymo-kondicionierius-30-ml/80%Daily2018-08-04 09:44
https://www.r1.lt/fly-vol-neapsunkinantis-purumo-ir-apimties-suteikiantis-kondicionierius-250-ml/80%Daily2018-08-04 08:08
https://www.r1.lt/gorenje-microwave-oven-bm300x-20-l-grill-electronic-800-w-inox-built-in-defrost-function/80%Daily2018-08-04 06:39
https://www.r1.lt/fischertechnik-oeco-energy-konstruktorius/80%Daily2018-08-04 06:20
https://www.r1.lt/fischertechnik-profi-optics-konstruktorius/80%Daily2018-08-04 05:57
https://www.r1.lt/whirlpool-w6-4ps1-om4-p-imontuojama-orkaite/80%Daily2018-08-04 05:46
https://www.r1.lt/kuvings-b8200w-ns625ces-letaeige-sulciaspaude-white/80%Daily2018-08-03 23:12
https://www.r1.lt/wenger-city-classic-01-1441-125/80%Daily2018-08-03 22:54
https://www.r1.lt/cata-vinoteca-vi-30017-x-vyno-saldytuvas/80%Daily2018-08-03 22:33
https://www.r1.lt/candy-cmfm-5142s-saldytuvas/80%Daily2018-08-03 19:20
https://www.r1.lt/wenger-urban-metropolitan-01-1741-121/80%Daily2018-08-03 18:32
https://www.r1.lt/external-hdd-apacer-ac532-2-5-2tb-usb-3-1-shockproof-black/80%Daily2018-08-03 18:15
https://www.r1.lt/slazenger-thinktank-sl-9-1055-2-04/80%Daily2018-08-03 17:58
https://www.r1.lt/wenger-seaforce-chrono-01-0643-108/80%Daily2018-08-03 17:36
https://www.r1.lt/juguetronica-lasertronic-game-v3-sautuvai-2-vnt/80%Daily2018-08-03 16:10
https://www.r1.lt/ultra-moisture-drekinamasis-sampunas-sausiems-plaukams-300-ml/80%Daily2018-08-03 15:50
https://www.r1.lt/asus-zenbook-ux430ua-blue-14-0-ips-fhd-1920-x-1080-pixels-matt-intel-core-i5-i5-8250u-8-gb-ddr3-onboard-ssd-512-gb-intel-hd-without-odd-windows-10-home-802-11-ac-bluetooth-version/80%Daily2018-08-03 15:14
https://www.r1.lt/wenger-wenger-urban-metropolitan-01-1741-119/80%Daily2018-08-03 13:31
https://www.r1.lt/ultimate-remedy-intensyvus-atkuriamasis-sampunas-pazeistiems-plaukams-300-ml/80%Daily2018-08-03 13:16
https://www.r1.lt/wenger-seaforce-chrono-01-0643-114/80%Daily2018-08-03 12:28
https://www.r1.lt/electric-shaver-philips-bg5020-15-for-body/80%Daily2018-08-03 10:11
https://www.r1.lt/sampunas-su-aliejais-elixir-ultime-250-ml/80%Daily2018-08-03 08:30
https://www.r1.lt/beurer-bs69-veidrodis/80%Daily2018-08-03 03:22
https://www.r1.lt/wenger-urban-classic-01-1741-124/80%Daily2018-08-03 03:06
https://www.r1.lt/sukos-59-1-vnt/80%Daily2018-08-03 02:04
https://www.r1.lt/samsung-ue49nu7372uxxh-led-televizorius/80%Daily2018-08-03 01:06
https://www.r1.lt/logilink-id0062-wired-white/80%Daily2018-08-03 00:35
https://www.r1.lt/audio-technica-headphones-with-built-in-mic-and-controls-ath-s200btbk-headband-on-ear-bluetooth-black-no-yes/80%Daily2018-08-02 20:27
https://www.r1.lt/color-lustre-zvilgesio-suteikiantis-sampunas-dazytiems-plaukams-300-ml/80%Daily2018-08-02 20:21
https://www.r1.lt/acme-sw201-ismanusis-laikrodis/80%Daily2018-08-02 15:59
https://www.r1.lt/bg13-beurer-svarstykles/80%Daily2018-08-02 15:09
https://www.r1.lt/jbl-go-2-nesiojamas-bluetooth-garsiakalbis-mint/80%Daily2018-08-02 14:20
https://www.r1.lt/philips-brl140-00-skustuvas-kunui/80%Daily2018-08-02 13:22
https://www.r1.lt/camry-profesional-citruis-juicer-cr-4006-type-electrical-stainless-steel-500-w-number-of-speeds-1/80%Daily2018-08-02 10:24
https://www.r1.lt/elysee-lady-sport-11018/80%Daily2018-08-02 10:12
https://www.r1.lt/arcas-headlight-arc28-28-led-4-lighting-modes/80%Daily2018-08-02 09:10
https://www.r1.lt/keycraft-nv275-stegozaurus-dinozauro-kiausinis-large/80%Daily2018-08-02 07:15
https://www.r1.lt/wenger-roadster-black-night-chrono-01-1843-105/80%Daily2018-08-02 06:52
https://www.r1.lt/camry-kettle-cr-1252v-standard-stainless-steel-violet-2200-w-360-rotational-base-1-8-l/80%Daily2018-08-02 06:40
https://www.r1.lt/gorenje-nrk62jsy2b-saldytuvas/80%Daily2018-08-02 05:41
https://www.r1.lt/acme-sw301-ismanusis-laikrodis-su-gps/80%Daily2018-08-02 04:09
https://www.r1.lt/whirlpool-wio-3o33-del-imontuojama-indaplove/80%Daily2018-08-02 02:56
https://www.r1.lt/wenger-attitude-seaforce-01-0641-124/80%Daily2018-08-02 02:06
https://www.r1.lt/fujitsu-lb-u728-i5-8250u-12-5fhd-8gb-256ssd-w10p-3cr/80%Daily2018-08-01 23:55
https://www.r1.lt/trevi-cmp-850-magnetola-su-cd-mp3-black/80%Daily2018-08-01 23:28
https://www.r1.lt/fujitsu-lb-u758-i7-15-6fhd-8gb-512ssd-w10p-3cr/80%Daily2018-08-01 23:02
https://www.r1.lt/wenger-roadster-black-night-chrono-01-1843-107/80%Daily2018-08-01 22:41
https://www.r1.lt/mg-295-beurer-masazuoklis-black/80%Daily2018-08-01 21:46
https://www.r1.lt/aura-botanica-kvapnusis-aliejus-nualintiems-plaukams-50ml/80%Daily2018-08-01 21:14
https://www.r1.lt/wenger-seaforce-chrono-01-0643-112/80%Daily2018-08-01 17:17
https://www.r1.lt/wenger-urban-metropolitan-01-1741-120/80%Daily2018-08-01 16:58
https://www.r1.lt/asus-zenbook-ux430ua-blue-14-0-ips-fhd-1920-x-1080-pixels-matt-intel-core-i7-i7-8550u-8-gb-ddr3-onboard-ssd-512-gb-intel-hd-without-odd-windows-10-pro-802-11-ac-bluetooth-version-4/80%Daily2018-08-01 14:58
https://www.r1.lt/mesko-kitchen-scales-ms-3155-maximum-weight-capacity-5-kg-graduation-1-g-white-strawberry/80%Daily2018-08-01 11:54
https://www.r1.lt/kaitlente-electrolux-liv63430bw/80%Daily2018-08-01 11:29
https://www.r1.lt/kaitlente-aeg-ike64450xb/80%Daily2018-08-01 10:01
https://www.r1.lt/elysee-diana-28602/80%Daily2018-08-01 09:12
https://www.r1.lt/dronas-3-3-wifi-overmax/80%Daily2018-08-01 08:20
https://www.r1.lt/plauku-gumytes-woodstock-3-vnt/80%Daily2018-08-01 08:09
https://www.r1.lt/wenger-attitude-heritage-01-1541-109/80%Daily2018-08-01 06:07
https://www.r1.lt/jordan-kerr-l113-iprg-black/80%Daily2018-08-01 03:59
https://www.r1.lt/jordan-kerr-i102l-ips/80%Daily2018-08-01 03:09
https://www.r1.lt/wenger-attitude-chrono-01-1543-105/80%Daily2018-08-01 02:59
https://www.r1.lt/kaitlente-electrolux-lit60430/80%Daily2018-08-01 01:06
https://www.r1.lt/plauku-gumytes-serpentine-5-vnt/80%Daily2018-08-01 00:57
https://www.r1.lt/prestigio-grace-b7-lte-mobilus-telefonas-blue/80%Daily2018-08-01 00:38